| time (UTC) | temp F | wind direction | speed MPH | gust MPH | rain 1hr in | rain 24hr in | rain mn in | humidity % | barometer mb |
| 20260509185605 | 88 | 259 | 2.0 | 5.0 | 0.00 | 0.00 | 0.00 | 51 | 1009.4 |
| 20260509185505 | 88 | 241 | 2.0 | 4.0 | 0.00 | 0.00 | 0.00 | 53 | 1009.5 |
| 20260509185306 | 88 | 238 | 2.0 | 4.0 | 0.00 | 0.00 | 0.00 | 53 | 1009.5 |
| 20260509185204 | 88 | 254 | 2.0 | 6.0 | 0.00 | 0.00 | 0.00 | 52 | 1009.5 |
| 20260509185105 | 88 | 263 | 2.0 | 6.0 | 0.00 | 0.00 | 0.00 | 53 | 1009.6 |
| 20260509185004 | 88 | 263 | 3.0 | 6.0 | 0.00 | 0.00 | 0.00 | 53 | 1009.5 |
| 20260509184804 | 87 | 277 | 4.0 | 12.0 | 0.00 | 0.00 | 0.00 | 53 | 1009.5 |
| 20260509184705 | 87 | 281 | 4.0 | 12.0 | 0.00 | 0.00 | 0.00 | 53 | 1009.5 |
| 20260509184604 | 87 | 286 | 4.0 | 12.0 | 0.00 | 0.00 | 0.00 | 53 | 1009.5 |
| 20260509184505 | 87 | 291 | 4.0 | 12.0 | 0.00 | 0.00 | 0.00 | 54 | 1009.6 |
| 20260509184404 | 86 | 297 | 4.0 | 12.0 | 0.00 | 0.00 | 0.00 | 52 | 1009.6 |
| 20260509184305 | 87 | 300 | 4.0 | 12.0 | 0.00 | 0.00 | 0.00 | 51 | 1009.6 |
| 20260509184204 | 87 | 307 | 4.0 | 12.0 | 0.00 | 0.00 | 0.00 | 51 | 1009.7 |
| 20260509183704 | 87 | 342 | 3.0 | 8.0 | 0.00 | 0.00 | 0.00 | 53 | 1009.7 |
| 20260509183605 | 87 | 341 | 3.0 | 9.0 | 0.00 | 0.00 | 0.00 | 51 | 1009.6 |
| 20260509183504 | 88 | 340 | 4.0 | 9.0 | 0.00 | 0.00 | 0.00 | 50 | 1009.7 |
| 20260509183405 | 88 | 331 | 4.0 | 9.0 | 0.00 | 0.00 | 0.00 | 51 | 1009.7 |
| 20260509183304 | 87 | 326 | 4.0 | 9.0 | 0.00 | 0.00 | 0.00 | 53 | 1009.7 |
| 20260509183204 | 87 | 320 | 4.0 | 9.0 | 0.00 | 0.00 | 0.00 | 52 | 1009.7 |
| 20260509183106 | 87 | 315 | 4.0 | 9.0 | 0.00 | 0.00 | 0.00 | 50 | 1009.7 |
| 20260509182905 | 88 | 307 | 4.0 | 9.0 | 0.00 | 0.00 | 0.00 | 54 | 1009.7 |
| 20260509182804 | 88 | 301 | 4.0 | 9.0 | 0.00 | 0.00 | 0.00 | 54 | 1009.7 |
| 20260509182705 | 88 | 298 | 4.0 | 9.0 | 0.00 | 0.00 | 0.00 | 53 | 1009.8 |
| 20260509182605 | 87 | 293 | 3.0 | 9.0 | 0.00 | 0.00 | 0.00 | 53 | 1009.8 |
| 20260509182505 | 87 | 284 | 3.0 | 9.0 | 0.00 | 0.00 | 0.00 | 54 | 1009.8 |
| 20260509182404 | 87 | 278 | 2.0 | 9.0 | 0.00 | 0.00 | 0.00 | 53 | 1009.8 |
| 20260509182306 | 87 | 255 | 2.0 | 7.0 | 0.00 | 0.00 | 0.00 | 53 | 1009.8 |
| 20260509182204 | 87 | 240 | 3.0 | 7.0 | 0.00 | 0.00 | 0.00 | 54 | 1009.9 |
| 20260509182105 | 87 | 236 | 3.0 | 7.0 | 0.00 | 0.00 | 0.00 | 54 | 1009.9 |
| 20260509182004 | 86 | 234 | 3.0 | 7.0 | 0.00 | 0.00 | 0.00 | 54 | 1010.0 |
| 20260509181905 | 86 | 230 | 3.0 | 7.0 | 0.00 | 0.00 | 0.00 | 54 | 1010.0 |
| 20260509181804 | 86 | 225 | 3.0 | 7.0 | 0.00 | 0.00 | 0.00 | 54 | 1009.9 |
| 20260509181705 | 86 | 220 | 2.0 | 7.0 | 0.00 | 0.00 | 0.00 | 54 | 1009.9 |
| 20260509181604 | 86 | 213 | 3.0 | 6.0 | 0.00 | 0.00 | 0.00 | 54 | 1009.9 |
| 20260509181505 | 86 | 212 | 2.0 | 6.0 | 0.00 | 0.00 | 0.00 | 52 | 1010.0 |
| 20260509181404 | 86 | 212 | 2.0 | 6.0 | 0.00 | 0.00 | 0.00 | 54 | 1010.0 |
| 20260509181305 | 86 | 208 | 2.0 | 6.0 | 0.00 | 0.00 | 0.00 | 55 | 1010.1 |
| 20260509181204 | 87 | 205 | 2.0 | 6.0 | 0.00 | 0.00 | 0.00 | 55 | 1010.0 |
| 20260509181104 | 87 | 210 | 2.0 | 6.0 | 0.00 | 0.00 | 0.00 | 54 | 1010.0 |
| 20260509180905 | 86 | 304 | 2.0 | 5.0 | 0.00 | 0.00 | 0.00 | 54 | 1010.0 |
| 20260509180804 | 86 | 356 | 2.0 | 7.0 | 0.00 | 0.00 | 0.00 | 54 | 1010.1 |
| 20260509180704 | 86 | 9 | 3.0 | 7.0 | 0.00 | 0.00 | 0.00 | 54 | 1010.1 |
| 20260509180605 | 86 | 13 | 3.0 | 7.0 | 0.00 | 0.00 | 0.00 | 54 | 1010.1 |
| 20260509180504 | 86 | 15 | 3.0 | 7.0 | 0.00 | 0.00 | 0.00 | 53 | 1010.2 |
| 20260509180404 | 86 | 16 | 3.0 | 7.0 | 0.00 | 0.00 | 0.00 | 53 | 1010.2 |
| 20260509180304 | 86 | 18 | 3.0 | 7.0 | 0.00 | 0.00 | 0.00 | 54 | 1010.3 |
| 20260509180105 | 86 | 18 | 3.0 | 7.0 | 0.00 | 0.00 | 0.00 | 55 | 1010.3 |
| 20260509180005 | 86 | 16 | 3.0 | 7.0 | 0.00 | 0.00 | 0.00 | 55 | 1010.3 |
| 20260509175904 | 86 | 11 | 3.0 | 7.0 | 0.00 | 0.00 | 0.00 | 55 | 1010.2 |
| 20260509175805 | 85 | 7 | 3.0 | 7.0 | 0.00 | 0.00 | 0.00 | 55 | 1010.2 |
| 20260509175604 | 85 | 354 | 3.0 | 6.0 | 0.00 | 0.00 | 0.00 | 53 | 1010.2 |
| 20260509175505 | 85 | 351 | 3.0 | 6.0 | 0.00 | 0.00 | 0.00 | 54 | 1010.3 |
| 20260509175404 | 85 | 339 | 3.0 | 7.0 | 0.00 | 0.00 | 0.00 | 54 | 1010.2 |
| 20260509175306 | 85 | 331 | 3.0 | 7.0 | 0.00 | 0.00 | 0.00 | 54 | 1010.2 |
| 20260509175204 | 85 | 330 | 3.0 | 7.0 | 0.00 | 0.00 | 0.00 | 54 | 1010.2 |
| 20260509175004 | 86 | 347 | 3.0 | 7.0 | 0.00 | 0.00 | 0.00 | 53 | 1010.2 |
| 20260509174905 | 86 | 350 | 4.0 | 8.0 | 0.00 | 0.00 | 0.00 | 55 | 1010.3 |
| 20260509174804 | 86 | 352 | 4.0 | 8.0 | 0.00 | 0.00 | 0.00 | 54 | 1010.3 |
| 20260509174604 | 86 | 355 | 3.0 | 8.0 | 0.00 | 0.00 | 0.00 | 54 | 1010.3 |
| 20260509174505 | 86 | 351 | 3.0 | 8.0 | 0.00 | 0.00 | 0.00 | 55 | 1010.3 |
| 20260509174404 | 86 | 355 | 3.0 | 8.0 | 0.00 | 0.00 | 0.00 | 54 | 1010.3 |
| 20260509174305 | 86 | 1 | 3.0 | 8.0 | 0.00 | 0.00 | 0.00 | 54 | 1010.3 |
| 20260509174204 | 86 | 12 | 3.0 | 8.0 | 0.00 | 0.00 | 0.00 | 55 | 1010.4 |
| 20260509174004 | 86 | 29 | 3.0 | 8.0 | 0.00 | 0.00 | 0.00 | 58 | 1010.4 |
| 20260509173805 | 86 | 55 | 3.0 | 8.0 | 0.00 | 0.00 | 0.00 | 58 | 1010.4 |
| 20260509173705 | 85 | 58 | 3.0 | 8.0 | 0.00 | 0.00 | 0.00 | 58 | 1010.4 |
| 20260509173604 | 85 | 62 | 3.0 | 8.0 | 0.00 | 0.00 | 0.00 | 58 | 1010.5 |
| 20260509173505 | 85 | 69 | 3.0 | 8.0 | 0.00 | 0.00 | 0.00 | 56 | 1010.4 |
| 20260509173404 | 85 | 71 | 3.0 | 8.0 | 0.00 | 0.00 | 0.00 | 57 | 1010.4 |
| 20260509173305 | 85 | 72 | 3.0 | 8.0 | 0.00 | 0.00 | 0.00 | 56 | 1010.4 |
| 20260509173105 | 85 | 41 | 3.0 | 8.0 | 0.00 | 0.00 | 0.00 | 56 | 1010.4 |
| 20260509172905 | 84 | 356 | 3.0 | 8.0 | 0.00 | 0.00 | 0.00 | 56 | 1010.5 |
| 20260509172804 | 84 | 336 | 3.0 | 8.0 | 0.00 | 0.00 | 0.00 | 55 | 1010.6 |
| 20260509172705 | 84 | 323 | 3.0 | 8.0 | 0.00 | 0.00 | 0.00 | 59 | 1010.6 |
| 20260509172604 | 84 | 315 | 3.0 | 7.0 | 0.00 | 0.00 | 0.00 | 55 | 1010.6 |
| 20260509172505 | 85 | 315 | 3.0 | 7.0 | 0.00 | 0.00 | 0.00 | 56 | 1010.6 |
| 20260509172105 | 85 | 337 | 3.0 | 7.0 | 0.00 | 0.00 | 0.00 | 56 | 1010.6 |
| 20260509171905 | 84 | 13 | 2.0 | 7.0 | 0.00 | 0.00 | 0.00 | 58 | 1010.7 |
| 20260509171704 | 84 | 52 | 2.0 | 5.0 | 0.00 | 0.00 | 0.00 | 56 | 1010.7 |
| 20260509171604 | 84 | 57 | 2.0 | 5.0 | 0.00 | 0.00 | 0.00 | 55 | 1010.7 |
| 20260509171505 | 84 | 53 | 2.0 | 5.0 | 0.00 | 0.00 | 0.00 | 56 | 1010.7 |
| 20260509171304 | 84 | 48 | 2.0 | 5.0 | 0.00 | 0.00 | 0.00 | 55 | 1010.7 |
| 20260509171104 | 84 | 39 | 2.0 | 5.0 | 0.00 | 0.00 | 0.00 | 58 | 1010.7 |
| 20260509171005 | 84 | 32 | 2.0 | 5.0 | 0.00 | 0.00 | 0.00 | 56 | 1010.7 |
| 20260509170804 | 84 | 10 | 2.0 | 4.0 | 0.00 | 0.00 | 0.00 | 57 | 1010.7 |
| 20260509170705 | 85 | 355 | 2.0 | 4.0 | 0.00 | 0.00 | 0.00 | 57 | 1010.8 |
| 20260509170604 | 84 | 330 | 2.0 | 5.0 | 0.00 | 0.00 | 0.00 | 57 | 1010.8 |
| 20260509170505 | 84 | 306 | 2.0 | 5.0 | 0.00 | 0.00 | 0.00 | 57 | 1010.8 |
| 20260509170404 | 84 | 297 | 2.0 | 5.0 | 0.00 | 0.00 | 0.00 | 57 | 1010.8 |
| 20260509170305 | 84 | 243 | 2.0 | 5.0 | 0.00 | 0.00 | 0.00 | 57 | 1010.8 |
| 20260509170204 | 84 | 244 | 2.0 | 5.0 | 0.00 | 0.00 | 0.00 | 57 | 1010.8 |
| 20260509170105 | 84 | 249 | 2.0 | 5.0 | 0.00 | 0.00 | 0.00 | 55 | 1010.9 |
| 20260509170004 | 84 | 262 | 2.0 | 5.0 | 0.00 | 0.00 | 0.00 | 57 | 1010.8 |
| 20260509165905 | 84 | 261 | 2.0 | 5.0 | 0.00 | 0.00 | 0.00 | 58 | 1010.8 |
| 20260509165805 | 84 | 296 | 2.0 | 5.0 | 0.00 | 0.00 | 0.00 | 58 | 1010.8 |
| 20260509165704 | 83 | 321 | 3.0 | 5.0 | 0.00 | 0.00 | 0.00 | 59 | 1010.8 |
| 20260509165605 | 83 | 339 | 3.0 | 8.0 | 0.00 | 0.00 | 0.00 | 58 | 1010.8 |
| 20260509165504 | 84 | 353 | 3.0 | 8.0 | 0.00 | 0.00 | 0.00 | 54 | 1010.8 |
| 20260509165306 | 84 | 352 | 3.0 | 8.0 | 0.00 | 0.00 | 0.00 | 55 | 1010.8 |
| 20260509165204 | 84 | 355 | 3.0 | 8.0 | 0.00 | 0.00 | 0.00 | 56 | 1010.7 |
| 20260509165106 | 84 | 358 | 3.0 | 8.0 | 0.00 | 0.00 | 0.00 | 55 | 1010.8 |
| 20260509165004 | 84 | 2 | 4.0 | 8.0 | 0.00 | 0.00 | 0.00 | 56 | 1010.7 |
| 20260509164905 | 84 | 7 | 4.0 | 8.0 | 0.00 | 0.00 | 0.00 | 57 | 1010.8 |
| 20260509164804 | 84 | 11 | 3.0 | 8.0 | 0.00 | 0.00 | 0.00 | 58 | 1010.8 |
| 20260509164705 | 84 | 18 | 3.0 | 8.0 | 0.00 | 0.00 | 0.00 | 58 | 1010.8 |
| 20260509164505 | 84 | 22 | 3.0 | 8.0 | 0.00 | 0.00 | 0.00 | 58 | 1010.8 |
| 20260509164304 | 84 | 23 | 3.0 | 8.0 | 0.00 | 0.00 | 0.00 | 58 | 1010.8 |
| 20260509164205 | 84 | 23 | 3.0 | 8.0 | 0.00 | 0.00 | 0.00 | 58 | 1010.9 |
| 20260509164104 | 84 | 26 | 3.0 | 8.0 | 0.00 | 0.00 | 0.00 | 58 | 1010.9 |
| 20260509164005 | 84 | 25 | 3.0 | 8.0 | 0.00 | 0.00 | 0.00 | 58 | 1010.8 |
| 20260509163905 | 84 | 27 | 3.0 | 8.0 | 0.00 | 0.00 | 0.00 | 58 | 1010.8 |
| 20260509163804 | 84 | 32 | 3.0 | 8.0 | 0.00 | 0.00 | 0.00 | 57 | 1010.9 |
| 20260509163705 | 83 | 32 | 3.0 | 8.0 | 0.00 | 0.00 | 0.00 | 58 | 1010.8 |
| 20260509163604 | 83 | 35 | 3.0 | 10.0 | 0.00 | 0.00 | 0.00 | 59 | 1010.8 |
| 20260509163505 | 83 | 33 | 4.0 | 10.0 | 0.00 | 0.00 | 0.00 | 58 | 1010.8 |
| 20260509163404 | 83 | 27 | 4.0 | 10.0 | 0.00 | 0.00 | 0.00 | 58 | 1010.8 |
| 20260509163304 | 83 | 23 | 4.0 | 10.0 | 0.00 | 0.00 | 0.00 | 60 | 1010.9 |
| 20260509163204 | 83 | 22 | 4.0 | 10.0 | 0.00 | 0.00 | 0.00 | 59 | 1010.8 |
| 20260509163104 | 82 | 20 | 5.0 | 10.0 | 0.00 | 0.00 | 0.00 | 59 | 1010.8 |
| 20260509163005 | 82 | 23 | 4.0 | 10.0 | 0.00 | 0.00 | 0.00 | 57 | 1010.8 |
| 20260509162904 | 82 | 22 | 4.0 | 10.0 | 0.00 | 0.00 | 0.00 | 56 | 1010.9 |
| 20260509162704 | 83 | 25 | 4.0 | 10.0 | 0.00 | 0.00 | 0.00 | 57 | 1010.8 |
| 20260509162604 | 83 | 22 | 4.0 | 9.0 | 0.00 | 0.00 | 0.00 | 56 | 1010.8 |
| 20260509162504 | 83 | 24 | 4.0 | 9.0 | 0.00 | 0.00 | 0.00 | 54 | 1010.8 |
| 20260509162404 | 83 | 28 | 4.0 | 9.0 | 0.00 | 0.00 | 0.00 | 55 | 1010.8 |
| 20260509162206 | 84 | 33 | 4.0 | 9.0 | 0.00 | 0.00 | 0.00 | 54 | 1010.8 |
| 20260509162104 | 84 | 32 | 4.0 | 9.0 | 0.00 | 0.00 | 0.00 | 56 | 1010.7 |
| 20260509161905 | 83 | 24 | 4.0 | 11.0 | 0.00 | 0.00 | 0.00 | 58 | 1010.7 |
| 20260509161704 | 83 | 8 | 4.0 | 11.0 | 0.00 | 0.00 | 0.00 | 58 | 1010.7 |
| 20260509161605 | 83 | 359 | 5.0 | 11.0 | 0.00 | 0.00 | 0.00 | 56 | 1010.7 |
| 20260509161504 | 83 | 354 | 5.0 | 12.0 | 0.00 | 0.00 | 0.00 | 58 | 1010.6 |
| 20260509161405 | 82 | 348 | 5.0 | 12.0 | 0.00 | 0.00 | 0.00 | 59 | 1010.6 |
| 20260509161304 | 82 | 340 | 5.0 | 12.0 | 0.00 | 0.00 | 0.00 | 58 | 1010.6 |
| 20260509161205 | 82 | 338 | 5.0 | 12.0 | 0.00 | 0.00 | 0.00 | 57 | 1010.7 |
| 20260509161104 | 82 | 339 | 5.0 | 12.0 | 0.00 | 0.00 | 0.00 | 57 | 1010.8 |
| 20260509161006 | 82 | 337 | 5.0 | 12.0 | 0.00 | 0.00 | 0.00 | 57 | 1010.7 |
| 20260509160904 | 82 | 339 | 5.0 | 12.0 | 0.00 | 0.00 | 0.00 | 58 | 1010.6 |
| 20260509160804 | 82 | 344 | 5.0 | 12.0 | 0.00 | 0.00 | 0.00 | 58 | 1010.6 |
| 20260509160704 | 82 | 348 | 6.0 | 12.0 | 0.00 | 0.00 | 0.00 | 58 | 1010.6 |
| 20260509160605 | 83 | 352 | 6.0 | 12.0 | 0.00 | 0.00 | 0.00 | 58 | 1010.6 |
| 20260509160504 | 83 | 355 | 5.0 | 12.0 | 0.00 | 0.00 | 0.00 | 59 | 1010.6 |
| 20260509160405 | 82 | 2 | 5.0 | 12.0 | 0.00 | 0.00 | 0.00 | 59 | 1010.6 |
| 20260509160205 | 82 | 9 | 5.0 | 12.0 | 0.00 | 0.00 | 0.00 | 57 | 1010.5 |
| 20260509160104 | 82 | 6 | 6.0 | 13.0 | 0.00 | 0.00 | 0.00 | 59 | 1010.5 |
| 20260509160005 | 82 | 7 | 5.0 | 13.0 | 0.00 | 0.00 | 0.00 | 59 | 1010.5 |
| 20260509155904 | 82 | 7 | 5.0 | 13.0 | 0.00 | 0.00 | 0.00 | 58 | 1010.5 |
| 20260509155804 | 82 | 2 | 5.0 | 13.0 | 0.00 | 0.00 | 0.00 | 60 | 1010.6 |
| 20260509155705 | 82 | 355 | 5.0 | 13.0 | 0.00 | 0.00 | 0.00 | 59 | 1010.6 |
| 20260509155604 | 82 | 355 | 5.0 | 13.0 | 0.00 | 0.00 | 0.00 | 61 | 1010.5 |
| 20260509155504 | 82 | 356 | 5.0 | 13.0 | 0.00 | 0.00 | 0.00 | 62 | 1010.5 |
| 20260509155404 | 82 | 359 | 5.0 | 13.0 | 0.00 | 0.00 | 0.00 | 61 | 1010.5 |
| 20260509155306 | 82 | 2 | 5.0 | 13.0 | 0.00 | 0.00 | 0.00 | 63 | 1010.5 |
| 20260509155204 | 81 | 2 | 5.0 | 13.0 | 0.00 | 0.00 | 0.00 | 63 | 1010.5 |
| 20260509155104 | 81 | 9 | 5.0 | 10.0 | 0.00 | 0.00 | 0.00 | 63 | 1010.5 |
| 20260509155004 | 81 | 11 | 5.0 | 10.0 | 0.00 | 0.00 | 0.00 | 67 | 1010.6 |
| 20260509154804 | 81 | 18 | 5.0 | 10.0 | 0.00 | 0.00 | 0.00 | 68 | 1010.5 |
| 20260509154605 | 81 | 22 | 5.0 | 10.0 | 0.00 | 0.00 | 0.00 | 68 | 1010.6 |
| 20260509154504 | 81 | 24 | 5.0 | 10.0 | 0.00 | 0.00 | 0.00 | 68 | 1010.6 |
| 20260509154404 | 80 | 21 | 5.0 | 10.0 | 0.00 | 0.00 | 0.00 | 68 | 1010.6 |
| 20260509154205 | 81 | 18 | 4.0 | 10.0 | 0.00 | 0.00 | 0.00 | 68 | 1010.7 |
| 20260509154104 | 81 | 17 | 4.0 | 10.0 | 0.00 | 0.00 | 0.00 | 68 | 1010.7 |
| 20260509154004 | 81 | 20 | 4.0 | 9.0 | 0.00 | 0.00 | 0.00 | 69 | 1010.7 |
| 20260509153904 | 81 | 20 | 4.0 | 9.0 | 0.00 | 0.00 | 0.00 | 70 | 1010.7 |
| 20260509153805 | 81 | 22 | 4.0 | 10.0 | 0.00 | 0.00 | 0.00 | 70 | 1010.7 |
| 20260509153704 | 81 | 25 | 4.0 | 10.0 | 0.00 | 0.00 | 0.00 | 72 | 1010.6 |
| 20260509153604 | 81 | 23 | 4.0 | 10.0 | 0.00 | 0.00 | 0.00 | 72 | 1010.6 |
| 20260509153505 | 80 | 20 | 4.0 | 10.0 | 0.00 | 0.00 | 0.00 | 72 | 1010.6 |
| 20260509153404 | 80 | 20 | 4.0 | 10.0 | 0.00 | 0.00 | 0.00 | 72 | 1010.6 |
| 20260509153304 | 80 | 18 | 4.0 | 10.0 | 0.00 | 0.00 | 0.00 | 72 | 1010.7 |
| 20260509153204 | 80 | 19 | 4.0 | 10.0 | 0.00 | 0.00 | 0.00 | 73 | 1010.7 |
| 20260509153004 | 80 | 15 | 4.0 | 10.0 | 0.00 | 0.00 | 0.00 | 71 | 1010.7 |
| 20260509152904 | 80 | 12 | 4.0 | 10.0 | 0.00 | 0.00 | 0.00 | 72 | 1010.7 |
| 20260509152804 | 80 | 8 | 4.0 | 10.0 | 0.00 | 0.00 | 0.00 | 72 | 1010.7 |
| 20260509152705 | 80 | 7 | 4.0 | 10.0 | 0.00 | 0.00 | 0.00 | 72 | 1010.7 |
| 20260509152604 | 80 | 5 | 4.0 | 10.0 | 0.00 | 0.00 | 0.00 | 74 | 1010.6 |
| 20260509152405 | 79 | 7 | 4.0 | 12.0 | 0.00 | 0.00 | 0.00 | 74 | 1010.6 |
| 20260509152306 | 79 | 11 | 4.0 | 12.0 | 0.00 | 0.00 | 0.00 | 74 | 1010.6 |
| 20260509152204 | 79 | 13 | 4.0 | 12.0 | 0.00 | 0.00 | 0.00 | 75 | 1010.6 |
| 20260509152104 | 79 | 18 | 4.0 | 12.0 | 0.00 | 0.00 | 0.00 | 75 | 1010.6 |
| 20260509152005 | 79 | 21 | 4.0 | 12.0 | 0.00 | 0.00 | 0.00 | 76 | 1010.6 |
| 20260509151805 | 79 | 28 | 5.0 | 12.0 | 0.00 | 0.00 | 0.00 | 76 | 1010.7 |
| 20260509151704 | 79 | 28 | 5.0 | 12.0 | 0.00 | 0.00 | 0.00 | 75 | 1010.7 |
| 20260509151605 | 79 | 34 | 4.0 | 12.0 | 0.00 | 0.00 | 0.00 | 75 | 1010.7 |
| 20260509151505 | 79 | 37 | 4.0 | 9.0 | 0.00 | 0.00 | 0.00 | 77 | 1010.7 |
| 20260509151404 | 78 | 36 | 4.0 | 9.0 | 0.00 | 0.00 | 0.00 | 78 | 1010.7 |
| 20260509151305 | 78 | 35 | 4.0 | 9.0 | 0.00 | 0.00 | 0.00 | 78 | 1010.6 |
| 20260509151205 | 78 | 32 | 4.0 | 9.0 | 0.00 | 0.00 | 0.00 | 78 | 1010.7 |
| 20260509151105 | 78 | 29 | 4.0 | 9.0 | 0.00 | 0.00 | 0.00 | 78 | 1010.7 |
| 20260509151004 | 78 | 29 | 4.0 | 9.0 | 0.00 | 0.00 | 0.00 | 78 | 1010.7 |
| 20260509150704 | 78 | 28 | 3.0 | 9.0 | 0.00 | 0.00 | 0.00 | 78 | 1010.7 |
| 20260509150505 | 78 | 35 | 3.0 | 9.0 | 0.00 | 0.00 | 0.00 | 77 | 1010.7 |
| 20260509150404 | 77 | 36 | 3.0 | 9.0 | 0.00 | 0.00 | 0.00 | 77 | 1010.8 |
| 20260509150305 | 77 | 37 | 3.0 | 9.0 | 0.00 | 0.00 | 0.00 | 77 | 1010.7 |
| 20260509150105 | 78 | 37 | 3.0 | 8.0 | 0.00 | 0.00 | 0.00 | 77 | 1010.7 |
| 20260509150004 | 78 | 37 | 3.0 | 8.0 | 0.00 | 0.00 | 0.00 | 78 | 1010.6 |
| 20260509145904 | 78 | 36 | 3.0 | 8.0 | 0.00 | 0.00 | 0.00 | 78 | 1010.6 |
| 20260509145804 | 77 | 31 | 3.0 | 8.0 | 0.00 | 0.00 | 0.00 | 78 | 1010.6 |
| 20260509145705 | 77 | 27 | 3.0 | 8.0 | 0.00 | 0.00 | 0.00 | 78 | 1010.6 |
| 20260509145604 | 78 | 13 | 3.0 | 8.0 | 0.00 | 0.00 | 0.00 | 77 | 1010.6 |
| 20260509145504 | 78 | 1 | 3.0 | 7.0 | 0.00 | 0.00 | 0.00 | 77 | 1010.6 |
| 20260509145404 | 78 | 359 | 3.0 | 7.0 | 0.00 | 0.00 | 0.00 | 77 | 1010.5 |
| 20260509145306 | 78 | 359 | 3.0 | 7.0 | 0.00 | 0.00 | 0.00 | 77 | 1010.5 |
| 20260509145105 | 78 | 359 | 3.0 | 9.0 | 0.00 | 0.00 | 0.00 | 77 | 1010.5 |
| 20260509145004 | 78 | 358 | 3.0 | 9.0 | 0.00 | 0.00 | 0.00 | 77 | 1010.4 |
| 20260509144405 | 78 | 13 | 3.0 | 9.0 | 0.00 | 0.00 | 0.00 | 78 | 1010.3 |
| 20260509144304 | 78 | 9 | 3.0 | 9.0 | 0.00 | 0.00 | 0.00 | 78 | 1010.3 |
| 20260509144205 | 78 | 11 | 3.0 | 9.0 | 0.00 | 0.00 | 0.00 | 81 | 1010.3 |
| 20260509144004 | 77 | 8 | 4.0 | 10.0 | 0.00 | 0.00 | 0.00 | 81 | 1010.1 |
| 20260509143905 | 77 | 3 | 4.0 | 10.0 | 0.00 | 0.00 | 0.00 | 81 | 1010.2 |
| 20260509143804 | 77 | 357 | 4.0 | 10.0 | 0.00 | 0.00 | 0.00 | 79 | 1010.2 |
| 20260509143706 | 77 | 351 | 4.0 | 10.0 | 0.00 | 0.00 | 0.00 | 79 | 1010.2 |
| 20260509143604 | 77 | 350 | 4.0 | 10.0 | 0.00 | 0.00 | 0.00 | 80 | 1010.2 |
| 20260509143505 | 77 | 349 | 4.0 | 10.0 | 0.00 | 0.00 | 0.00 | 79 | 1010.1 |
| 20260509143404 | 77 | 347 | 3.0 | 10.0 | 0.00 | 0.00 | 0.00 | 79 | 1010.1 |
| 20260509143305 | 77 | 349 | 3.0 | 10.0 | 0.00 | 0.00 | 0.00 | 79 | 1010.1 |
| 20260509143204 | 77 | 350 | 3.0 | 10.0 | 0.00 | 0.00 | 0.00 | 80 | 1010.0 |
| 20260509143105 | 77 | 351 | 3.0 | 10.0 | 0.00 | 0.00 | 0.00 | 80 | 1009.9 |
| 20260509143004 | 77 | 348 | 2.0 | 8.0 | 0.00 | 0.00 | 0.00 | 80 | 1009.9 |
| 20260509142905 | 77 | 350 | 2.0 | 8.0 | 0.00 | 0.00 | 0.00 | 79 | 1009.8 |
| 20260509142804 | 77 | 354 | 2.0 | 7.0 | 0.00 | 0.00 | 0.00 | 79 | 1009.8 |
| 20260509142705 | 78 | 359 | 2.0 | 7.0 | 0.00 | 0.00 | 0.00 | 79 | 1009.8 |
| 20260509142604 | 78 | 2 | 2.0 | 7.0 | 0.00 | 0.00 | 0.00 | 80 | 1009.8 |
| 20260509142404 | 77 | 359 | 3.0 | 7.0 | 0.00 | 0.00 | 0.00 | 83 | 1009.8 |
| 20260509142307 | 76 | 359 | 3.0 | 11.0 | 0.00 | 0.00 | 0.00 | 83 | 1009.8 |
| 20260509142205 | 76 | 356 | 3.0 | 11.0 | 0.00 | 0.00 | 0.00 | 82 | 1009.8 |
| 20260509142004 | 76 | 358 | 4.0 | 11.0 | 0.00 | 0.00 | 0.00 | 82 | 1009.7 |
| 20260509141904 | 76 | 4 | 4.0 | 11.0 | 0.00 | 0.00 | 0.00 | 83 | 1009.7 |
| 20260509141804 | 76 | 5 | 4.0 | 11.0 | 0.00 | 0.00 | 0.00 | 83 | 1009.7 |
| 20260509141505 | 76 | 355 | 4.0 | 11.0 | 0.00 | 0.00 | 0.00 | 83 | 1009.9 |
| 20260509141404 | 76 | 351 | 4.0 | 11.0 | 0.00 | 0.00 | 0.00 | 85 | 1009.9 |
| 20260509141304 | 76 | 347 | 3.0 | 9.0 | 0.00 | 0.00 | 0.00 | 85 | 1009.9 |
| 20260509141004 | 75 | 346 | 3.0 | 9.0 | 0.00 | 0.00 | 0.00 | 85 | 1009.9 |
| 20260509140904 | 74 | 347 | 3.0 | 12.0 | 0.00 | 0.00 | 0.00 | 85 | 1009.8 |
| 20260509140804 | 74 | 351 | 3.0 | 12.0 | 0.00 | 0.00 | 0.00 | 85 | 1009.7 |
| 20260509140704 | 74 | 356 | 3.0 | 12.0 | 0.00 | 0.00 | 0.00 | 85 | 1009.6 |
| 20260509140604 | 74 | 2 | 4.0 | 12.0 | 0.00 | 0.00 | 0.00 | 84 | 1009.5 |
| 20260509140504 | 74 | 7 | 4.0 | 12.0 | 0.00 | 0.00 | 0.00 | 84 | 1009.5 |
| 20260509140304 | 74 | 8 | 5.0 | 12.0 | 0.00 | 0.00 | 0.00 | 84 | 1009.5 |
| 20260509140204 | 75 | 7 | 5.0 | 12.0 | 0.00 | 0.00 | 0.00 | 84 | 1009.7 |
| 20260509140105 | 75 | 6 | 5.0 | 12.0 | 0.00 | 0.00 | 0.00 | 84 | 1009.8 |
| 20260509140006 | 75 | 4 | 5.0 | 12.0 | 0.00 | 0.00 | 0.00 | 84 | 1009.8 |
| 20260509135904 | 75 | 358 | 4.0 | 12.0 | 0.00 | 0.00 | 0.00 | 84 | 1009.8 |
| 20260509135804 | 75 | 347 | 4.0 | 12.0 | 0.00 | 0.00 | 0.00 | 85 | 1009.8 |
| 20260509135504 | 75 | 296 | 3.0 | 11.0 | 0.00 | 0.00 | 0.00 | 85 | 1009.6 |
| 20260509135404 | 75 | 281 | 3.0 | 9.0 | 0.00 | 0.00 | 0.00 | 86 | 1009.4 |
| 20260509135306 | 75 | 270 | 3.0 | 6.0 | 0.00 | 0.00 | 0.00 | 86 | 1009.2 |
| 20260509135204 | 75 | 270 | 3.0 | 6.0 | 0.00 | 0.00 | 0.00 | 86 | 1009.1 |
| 20260509135104 | 74 | 278 | 3.0 | 8.0 | 0.00 | 0.00 | 0.00 | 87 | 1009.1 |
| 20260509135004 | 74 | 286 | 3.0 | 8.0 | 0.00 | 0.00 | 0.00 | 87 | 1009.0 |
| 20260509134904 | 74 | 292 | 3.0 | 8.0 | 0.00 | 0.00 | 0.00 | 87 | 1009.1 |
| 20260509134804 | 74 | 293 | 3.0 | 8.0 | 0.00 | 0.00 | 0.00 | 87 | 1009.1 |
| 20260509134704 | 74 | 298 | 3.0 | 8.0 | 0.00 | 0.00 | 0.00 | 87 | 1009.1 |
| 20260509134504 | 73 | 291 | 4.0 | 8.0 | 0.00 | 0.00 | 0.00 | 88 | 1009.1 |
| 20260509134404 | 73 | 281 | 4.0 | 8.0 | 0.00 | 0.00 | 0.00 | 87 | 1009.1 |
| 20260509134304 | 73 | 270 | 4.0 | 8.0 | 0.00 | 0.00 | 0.00 | 87 | 1009.1 |
| 20260509134204 | 73 | 259 | 5.0 | 10.0 | 0.00 | 0.00 | 0.00 | 87 | 1009.0 |
| 20260509134104 | 73 | 247 | 5.0 | 14.0 | 0.00 | 0.00 | 0.00 | 86 | 1008.9 |
| 20260509134005 | 74 | 238 | 6.0 | 14.0 | 0.00 | 0.00 | 0.00 | 86 | 1008.9 |
| 20260509133904 | 74 | 232 | 6.0 | 14.0 | 0.00 | 0.00 | 0.00 | 87 | 1008.8 |
| 20260509133704 | 74 | 222 | 6.0 | 14.0 | 0.00 | 0.00 | 0.00 | 87 | 1008.7 |
| 20260509133604 | 73 | 221 | 7.0 | 14.0 | 0.00 | 0.00 | 0.00 | 88 | 1008.6 |
| 20260509133504 | 73 | 220 | 7.0 | 14.0 | 0.00 | 0.00 | 0.00 | 88 | 1008.6 |
| 20260509133404 | 73 | 219 | 7.0 | 14.0 | 0.00 | 0.00 | 0.00 | 88 | 1008.5 |
| 20260509133204 | 73 | 219 | 8.0 | 14.0 | 0.00 | 0.00 | 0.00 | 89 | 1008.4 |
| 20260509133104 | 73 | 218 | 8.0 | 15.0 | 0.00 | 0.00 | 0.00 | 89 | 1008.4 |
| 20260509133005 | 73 | 218 | 8.0 | 15.0 | 0.00 | 0.00 | 0.00 | 89 | 1008.3 |
| 20260509132904 | 72 | 217 | 7.0 | 15.0 | 0.00 | 0.00 | 0.00 | 89 | 1008.3 |
| 20260509132804 | 72 | 218 | 7.0 | 15.0 | 0.00 | 0.00 | 0.00 | 89 | 1008.3 |
| 20260509132704 | 72 | 217 | 8.0 | 15.0 | 0.00 | 0.00 | 0.00 | 90 | 1008.3 |
| 20260509132604 | 72 | 218 | 8.0 | 15.0 | 0.00 | 0.00 | 0.00 | 90 | 1008.4 |
| 20260509132504 | 72 | 218 | 7.0 | 15.0 | 0.00 | 0.00 | 0.00 | 90 | 1008.3 |
| 20260509132404 | 72 | 218 | 7.0 | 15.0 | 0.00 | 0.00 | 0.00 | 90 | 1008.3 |
| 20260509132306 | 72 | 217 | 7.0 | 15.0 | 0.00 | 0.00 | 0.00 | 90 | 1008.4 |
| 20260509132204 | 72 | 216 | 7.0 | 15.0 | 0.00 | 0.00 | 0.00 | 91 | 1008.4 |
| 20260509132105 | 72 | 215 | 6.0 | 12.0 | 0.00 | 0.00 | 0.00 | 91 | 1008.5 |
| 20260509131906 | 72 | 214 | 6.0 | 12.0 | 0.00 | 0.00 | 0.00 | 91 | 1008.5 |
| 20260509131804 | 71 | 212 | 6.0 | 12.0 | 0.00 | 0.00 | 0.00 | 91 | 1008.6 |
| 20260509131704 | 71 | 213 | 6.0 | 12.0 | 0.00 | 0.00 | 0.00 | 92 | 1008.6 |
| 20260509131605 | 71 | 212 | 6.0 | 10.0 | 0.00 | 0.00 | 0.00 | 92 | 1008.6 |
| 20260509131504 | 71 | 213 | 6.0 | 9.0 | 0.00 | 0.00 | 0.00 | 92 | 1008.5 |
| 20260509131404 | 71 | 215 | 5.0 | 9.0 | 0.00 | 0.00 | 0.00 | 92 | 1008.6 |
| 20260509131304 | 71 | 218 | 5.0 | 9.0 | 0.00 | 0.00 | 0.00 | 92 | 1008.6 |
| 20260509131204 | 71 | 221 | 5.0 | 9.0 | 0.00 | 0.00 | 0.00 | 93 | 1008.6 |
| 20260509131003 | 70 | 234 | 5.0 | 9.0 | 0.00 | 0.00 | 0.00 | 93 | 1008.6 |
| 20260509130904 | 70 | 242 | 5.0 | 9.0 | 0.00 | 0.00 | 0.00 | 93 | 1008.6 |
| 20260509130804 | 70 | 252 | 5.0 | 9.0 | 0.00 | 0.00 | 0.00 | 93 | 1008.7 |
| 20260509130704 | 70 | 256 | 5.0 | 9.0 | 0.00 | 0.00 | 0.00 | 93 | 1008.7 |
| 20260509130603 | 70 | 259 | 5.0 | 9.0 | 0.00 | 0.00 | 0.00 | 93 | 1008.7 |
| 20260509130504 | 70 | 259 | 5.0 | 9.0 | 0.00 | 0.00 | 0.00 | 93 | 1008.7 |
| 20260509130403 | 70 | 259 | 5.0 | 9.0 | 0.00 | 0.00 | 0.00 | 93 | 1008.7 |
| 20260509130304 | 70 | 255 | 5.0 | 9.0 | 0.00 | 0.00 | 0.00 | 93 | 1008.7 |
| 20260509130104 | 70 | 241 | 5.0 | 10.0 | 0.00 | 0.00 | 0.00 | 94 | 1008.8 |
| 20260509130004 | 70 | 232 | 5.0 | 10.0 | 0.00 | 0.00 | 0.00 | 94 | 1008.7 |
| 20260509125904 | 70 | 221 | 5.0 | 11.0 | 0.00 | 0.00 | 0.00 | 94 | 1008.7 |
| 20260509125704 | 70 | 211 | 6.0 | 11.0 | 0.00 | 0.00 | 0.00 | 94 | 1008.7 |
| 20260509125604 | 70 | 210 | 6.0 | 11.0 | 0.00 | 0.00 | 0.00 | 94 | 1008.7 |
| 20260509125504 | 70 | 208 | 6.0 | 11.0 | 0.00 | 0.00 | 0.00 | 94 | 1008.6 |
| 20260509125307 | 69 | 207 | 5.0 | 11.0 | 0.00 | 0.00 | 0.00 | 94 | 1008.6 |
| 20260509125204 | 69 | 208 | 5.0 | 11.0 | 0.00 | 0.00 | 0.00 | 94 | 1008.6 |
| 20260509125104 | 69 | 210 | 5.0 | 11.0 | 0.00 | 0.00 | 0.00 | 94 | 1008.6 |
| 20260509124906 | 69 | 212 | 4.0 | 9.0 | 0.00 | 0.00 | 0.00 | 94 | 1008.5 |
| 20260509124804 | 69 | 213 | 4.0 | 9.0 | 0.00 | 0.00 | 0.00 | 94 | 1008.5 |
| 20260509124704 | 69 | 213 | 4.0 | 9.0 | 0.00 | 0.00 | 0.00 | 94 | 1008.5 |
| 20260509124604 | 69 | 213 | 4.0 | 9.0 | 0.00 | 0.00 | 0.00 | 94 | 1008.5 |
| 20260509124504 | 69 | 212 | 4.0 | 9.0 | 0.00 | 0.00 | 0.00 | 94 | 1008.5 |
| 20260509124404 | 68 | 211 | 4.0 | 9.0 | 0.00 | 0.00 | 0.00 | 94 | 1008.4 |
| 20260509124304 | 68 | 209 | 4.0 | 9.0 | 0.00 | 0.00 | 0.00 | 94 | 1008.4 |
| 20260509124204 | 68 | 207 | 4.0 | 9.0 | 0.00 | 0.00 | 0.00 | 94 | 1008.4 |
| 20260509124104 | 68 | 206 | 5.0 | 10.0 | 0.00 | 0.00 | 0.00 | 94 | 1008.4 |
| 20260509123905 | 68 | 203 | 5.0 | 10.0 | 0.00 | 0.00 | 0.00 | 94 | 1008.4 |
| 20260509123804 | 68 | 201 | 5.0 | 10.0 | 0.00 | 0.00 | 0.00 | 94 | 1008.3 |
| 20260509123705 | 68 | 199 | 5.0 | 10.0 | 0.00 | 0.00 | 0.00 | 94 | 1008.3 |
| 20260509123604 | 68 | 198 | 6.0 | 10.0 | 0.00 | 0.00 | 0.00 | 94 | 1008.3 |
| 20260509123304 | 68 | 194 | 6.0 | 12.0 | 0.00 | 0.00 | 0.00 | 94 | 1008.4 |
| 20260509123005 | 67 | 191 | 7.0 | 13.0 | 0.00 | 0.00 | 0.00 | 94 | 1008.4 |
| 20260509122904 | 67 | 190 | 7.0 | 13.0 | 0.00 | 0.00 | 0.00 | 94 | 1008.4 |
| 20260509122704 | 67 | 190 | 8.0 | 14.0 | 0.00 | 0.00 | 0.00 | 94 | 1008.4 |
| 20260509122604 | 67 | 188 | 8.0 | 14.0 | 0.00 | 0.00 | 0.00 | 94 | 1008.4 |
| 20260509122505 | 67 | 187 | 8.0 | 14.0 | 0.00 | 0.00 | 0.00 | 94 | 1008.4 |
| 20260509122404 | 67 | 185 | 8.0 | 14.0 | 0.00 | 0.00 | 0.00 | 94 | 1008.4 |
| 20260509122306 | 67 | 184 | 8.0 | 14.0 | 0.00 | 0.00 | 0.00 | 94 | 1008.4 |
| 20260509122204 | 67 | 183 | 8.0 | 14.0 | 0.00 | 0.00 | 0.00 | 94 | 1008.4 |
| 20260509122104 | 67 | 183 | 8.0 | 14.0 | 0.00 | 0.00 | 0.00 | 94 | 1008.4 |
| 20260509122004 | 67 | 181 | 7.0 | 14.0 | 0.00 | 0.00 | 0.00 | 94 | 1008.4 |
| 20260509121904 | 67 | 181 | 8.0 | 14.0 | 0.00 | 0.00 | 0.00 | 94 | 1008.4 |
| 20260509121804 | 67 | 179 | 8.0 | 14.0 | 0.00 | 0.00 | 0.00 | 94 | 1008.4 |
| 20260509121704 | 67 | 179 | 8.0 | 12.0 | 0.00 | 0.00 | 0.00 | 94 | 1008.4 |
| 20260509121604 | 67 | 179 | 8.0 | 12.0 | 0.00 | 0.00 | 0.00 | 94 | 1008.5 |
| 20260509121304 | 66 | 182 | 7.0 | 12.0 | 0.00 | 0.00 | 0.00 | 94 | 1008.5 |
| 20260509121204 | 66 | 183 | 7.0 | 12.0 | 0.00 | 0.00 | 0.00 | 94 | 1008.4 |
| 20260509121004 | 66 | 184 | 6.0 | 12.0 | 0.00 | 0.00 | 0.00 | 94 | 1008.3 |
| 20260509120904 | 67 | 184 | 6.0 | 12.0 | 0.00 | 0.00 | 0.00 | 94 | 1008.4 |
| 20260509120806 | 66 | 184 | 5.0 | 12.0 | 0.00 | 0.00 | 0.00 | 94 | 1008.4 |
| 20260509120704 | 66 | 183 | 5.0 | 10.0 | 0.00 | 0.00 | 0.00 | 94 | 1008.4 |
| 20260509120603 | 66 | 182 | 4.0 | 10.0 | 0.00 | 0.00 | 0.00 | 94 | 1008.3 |
| 20260509120504 | 66 | 185 | 3.0 | 10.0 | 0.00 | 0.00 | 0.00 | 94 | 1008.4 |
| 20260509120404 | 67 | 188 | 3.0 | 9.0 | 0.00 | 0.00 | 0.00 | 94 | 1008.4 |
| 20260509120304 | 67 | 191 | 3.0 | 7.0 | 0.00 | 0.00 | 0.00 | 94 | 1008.5 |
| 20260509120203 | 67 | 195 | 3.0 | 7.0 | 0.00 | 0.00 | 0.00 | 94 | 1008.5 |
| 20260509120104 | 67 | 196 | 3.0 | 7.0 | 0.00 | 0.00 | 0.00 | 94 | 1008.6 |
| 20260509120005 | 67 | 199 | 3.0 | 11.0 | 0.00 | 0.00 | 0.00 | 94 | 1008.7 |
| 20260509115704 | 67 | 202 | 4.0 | 11.0 | 0.00 | 0.00 | 0.00 | 94 | 1008.9 |
| 20260509115604 | 67 | 202 | 5.0 | 11.0 | 0.00 | 0.00 | 0.00 | 94 | 1008.9 |
| 20260509115504 | 67 | 201 | 5.0 | 11.0 | 0.00 | 0.00 | 0.00 | 94 | 1008.9 |
| 20260509115404 | 67 | 198 | 6.0 | 11.0 | 0.00 | 0.00 | 0.00 | 94 | 1008.9 |
| 20260509115306 | 67 | 197 | 6.0 | 11.0 | 0.00 | 0.00 | 0.00 | 94 | 1008.9 |
| 20260509115104 | 67 | 195 | 6.0 | 11.0 | 0.00 | 0.00 | 0.00 | 94 | 1008.9 |
| 20260509115004 | 66 | 194 | 6.0 | 10.0 | 0.00 | 0.00 | 0.00 | 94 | 1008.8 |
| 20260509114905 | 66 | 194 | 5.0 | 10.0 | 0.00 | 0.00 | 0.00 | 94 | 1008.8 |
| 20260509114803 | 66 | 193 | 5.0 | 10.0 | 0.00 | 0.00 | 0.00 | 94 | 1008.8 |
| 20260509114704 | 67 | 194 | 5.0 | 10.0 | 0.00 | 0.00 | 0.00 | 94 | 1008.8 |
| 20260509114604 | 67 | 195 | 5.0 | 10.0 | 0.00 | 0.00 | 0.00 | 94 | 1008.8 |
| 20260509114504 | 67 | 197 | 5.0 | 9.0 | 0.00 | 0.00 | 0.00 | 94 | 1008.8 |
| 20260509114404 | 67 | 200 | 4.0 | 9.0 | 0.00 | 0.00 | 0.00 | 94 | 1008.9 |
| 20260509114304 | 67 | 203 | 4.0 | 9.0 | 0.00 | 0.00 | 0.00 | 94 | 1008.9 |
| 20260509114104 | 67 | 207 | 4.0 | 9.0 | 0.00 | 0.00 | 0.00 | 94 | 1008.9 |
| 20260509114004 | 67 | 209 | 4.0 | 8.0 | 0.00 | 0.00 | 0.00 | 94 | 1008.9 |
| 20260509113904 | 67 | 211 | 4.0 | 6.0 | 0.00 | 0.00 | 0.00 | 94 | 1008.9 |
| 20260509113804 | 67 | 213 | 4.0 | 6.0 | 0.00 | 0.00 | 0.00 | 94 | 1008.9 |
| 20260509113704 | 67 | 214 | 4.0 | 6.0 | 0.00 | 0.00 | 0.00 | 94 | 1008.9 |
| 20260509113604 | 67 | 216 | 4.0 | 6.0 | 0.00 | 0.00 | 0.00 | 94 | 1008.9 |
| 20260509113505 | 66 | 217 | 3.0 | 6.0 | 0.00 | 0.00 | 0.00 | 94 | 1008.9 |
| 20260509113404 | 66 | 217 | 4.0 | 6.0 | 0.00 | 0.00 | 0.00 | 94 | 1008.9 |
| 20260509113304 | 66 | 217 | 4.0 | 6.0 | 0.00 | 0.00 | 0.00 | 94 | 1009.0 |
| 20260509112704 | 66 | 221 | 3.0 | 6.0 | 0.00 | 0.01 | 0.00 | 94 | 1009.1 |
| 20260509112504 | 66 | 222 | 3.0 | 6.0 | 0.00 | 0.01 | 0.00 | 94 | 1009.3 |
| 20260509112404 | 66 | 225 | 3.0 | 6.0 | 0.00 | 0.01 | 0.00 | 94 | 1009.4 |
| 20260509112306 | 66 | 227 | 3.0 | 6.0 | 0.00 | 0.02 | 0.00 | 94 | 1009.4 |
| 20260509112204 | 66 | 229 | 3.0 | 6.0 | 0.00 | 0.02 | 0.00 | 94 | 1009.5 |
| 20260509112104 | 67 | 231 | 3.0 | 6.0 | 0.00 | 0.02 | 0.00 | 94 | 1009.6 |
| 20260509112004 | 67 | 232 | 3.0 | 6.0 | 0.00 | 0.02 | 0.00 | 94 | 1009.7 |
| 20260509111904 | 67 | 233 | 2.0 | 6.0 | 0.00 | 0.03 | 0.00 | 94 | 1009.7 |
| 20260509111804 | 67 | 234 | 2.0 | 6.0 | 0.00 | 0.03 | 0.00 | 94 | 1009.7 |
| 20260509111704 | 67 | 235 | 2.0 | 5.0 | 0.00 | 0.03 | 0.00 | 94 | 1009.8 |
| 20260509111604 | 67 | 238 | 2.0 | 5.0 | 0.00 | 0.04 | 0.00 | 94 | 1009.9 |
| 20260509111504 | 67 | 240 | 2.0 | 5.0 | 0.00 | 0.05 | 0.00 | 94 | 1010.0 |
| 20260509111404 | 67 | 245 | 2.0 | 5.0 | 0.00 | 0.05 | 0.00 | 94 | 1010.0 |
| 20260509111204 | 67 | 256 | 2.0 | 5.0 | 0.00 | 0.05 | 0.00 | 94 | 1010.1 |
| 20260509111004 | 67 | 267 | 3.0 | 8.0 | 0.00 | 0.06 | 0.00 | 94 | 1010.2 |
| 20260509110904 | 67 | 271 | 3.0 | 8.0 | 0.00 | 0.06 | 0.00 | 94 | 1010.2 |
| 20260509110804 | 67 | 277 | 3.0 | 8.0 | 0.00 | 0.06 | 0.00 | 94 | 1010.3 |
| 20260509110603 | 67 | 285 | 4.0 | 8.0 | 0.00 | 0.06 | 0.00 | 94 | 1010.3 |
| 20260509110504 | 67 | 289 | 5.0 | 8.0 | 0.00 | 0.06 | 0.00 | 94 | 1010.3 |
| 20260509110304 | 67 | 295 | 5.0 | 10.0 | 0.00 | 0.06 | 0.00 | 94 | 1010.5 |
| 20260509110204 | 67 | 299 | 6.0 | 10.0 | 0.00 | 0.06 | 0.00 | 94 | 1010.5 |
| 20260509110104 | 67 | 301 | 6.0 | 10.0 | 0.00 | 0.06 | 0.00 | 94 | 1010.6 |
| 20260509105904 | 67 | 304 | 6.0 | 10.0 | 0.00 | 0.06 | 0.00 | 94 | 1010.6 |
| 20260509105804 | 67 | 305 | 6.0 | 10.0 | 0.00 | 0.06 | 0.00 | 94 | 1010.7 |
| 20260509105704 | 67 | 307 | 6.0 | 10.0 | 0.00 | 0.06 | 0.00 | 94 | 1010.7 |
| 20260509105604 | 67 | 307 | 6.0 | 10.0 | 0.00 | 0.06 | 0.00 | 94 | 1010.8 |
| 20260509105504 | 67 | 308 | 7.0 | 10.0 | 0.00 | 0.06 | 0.00 | 94 | 1010.8 |
| 20260509105306 | 67 | 308 | 6.0 | 10.0 | 0.00 | 0.06 | 0.00 | 94 | 1011.0 |
| 20260509105104 | 67 | 306 | 6.0 | 11.0 | 0.00 | 0.06 | 0.00 | 94 | 1011.2 |
| 20260509105004 | 67 | 305 | 6.0 | 11.0 | 0.00 | 0.06 | 0.00 | 94 | 1011.2 |
| 20260509104905 | 68 | 303 | 6.0 | 11.0 | 0.00 | 0.06 | 0.00 | 94 | 1011.2 |
| 20260509104803 | 68 | 301 | 6.0 | 11.0 | 0.00 | 0.06 | 0.00 | 94 | 1011.2 |
| 20260509104604 | 68 | 299 | 6.0 | 11.0 | 0.00 | 0.06 | 0.00 | 94 | 1011.2 |
| 20260509104405 | 67 | 296 | 6.0 | 11.0 | 0.00 | 0.06 | 0.00 | 94 | 1011.1 |
| 20260509104304 | 68 | 297 | 6.0 | 11.0 | 0.00 | 0.06 | 0.00 | 94 | 1011.1 |
| 20260509104203 | 68 | 297 | 6.0 | 10.0 | 0.00 | 0.06 | 0.00 | 94 | 1011.1 |
| 20260509104108 | 68 | 298 | 6.0 | 10.0 | 0.00 | 0.06 | 0.00 | 94 | 1011.1 |
| 20260509103904 | 68 | 300 | 6.0 | 10.0 | 0.00 | 0.06 | 0.00 | 94 | 1011.2 |
| 20260509103805 | 68 | 302 | 6.0 | 12.0 | 0.00 | 0.06 | 0.00 | 94 | 1011.2 |
| 20260509103704 | 68 | 304 | 6.0 | 12.0 | 0.00 | 0.06 | 0.00 | 94 | 1011.3 |
| 20260509103605 | 68 | 306 | 7.0 | 12.0 | 0.00 | 0.06 | 0.00 | 94 | 1011.3 |
| 20260509103404 | 68 | 309 | 7.0 | 12.0 | 0.00 | 0.06 | 0.00 | 94 | 1011.3 |
| 20260509103304 | 68 | 310 | 7.0 | 12.0 | 0.00 | 0.06 | 0.00 | 94 | 1011.3 |
| 20260509103204 | 68 | 311 | 7.0 | 12.0 | 0.00 | 0.06 | 0.00 | 94 | 1011.3 |
| 20260509103103 | 68 | 312 | 7.0 | 12.0 | 0.00 | 0.06 | 0.00 | 94 | 1011.3 |
| 20260509103004 | 68 | 314 | 7.0 | 12.0 | 0.00 | 0.06 | 0.00 | 94 | 1011.2 |
| 20260509102904 | 68 | 314 | 7.0 | 12.0 | 0.00 | 0.06 | 0.00 | 94 | 1011.3 |
| 20260509102804 | 68 | 314 | 6.0 | 12.0 | 0.00 | 0.06 | 0.00 | 94 | 1011.2 |
| 20260509102705 | 68 | 314 | 6.0 | 12.0 | 0.00 | 0.06 | 0.00 | 94 | 1011.2 |
| 20260509102604 | 68 | 314 | 6.0 | 12.0 | 0.00 | 0.06 | 0.00 | 94 | 1011.3 |
| 20260509102504 | 68 | 315 | 5.0 | 12.0 | 0.00 | 0.06 | 0.00 | 94 | 1011.3 |
| 20260509102204 | 67 | 312 | 4.0 | 9.0 | 0.00 | 0.06 | 0.00 | 94 | 1011.2 |
| 20260509102004 | 67 | 309 | 4.0 | 9.0 | 0.00 | 0.06 | 0.00 | 94 | 1011.1 |
| 20260509101904 | 67 | 308 | 3.0 | 9.0 | 0.00 | 0.06 | 0.00 | 94 | 1011.1 |
| 20260509101803 | 67 | 307 | 3.0 | 9.0 | 0.00 | 0.06 | 0.00 | 94 | 1010.9 |
| 20260509101704 | 67 | 305 | 3.0 | 6.0 | 0.00 | 0.06 | 0.00 | 94 | 1010.9 |
| 20260509101604 | 67 | 304 | 3.0 | 6.0 | 0.00 | 0.06 | 0.00 | 94 | 1010.9 |
| 20260509101504 | 67 | 303 | 3.0 | 6.0 | 0.00 | 0.06 | 0.00 | 94 | 1010.9 |
| 20260509101404 | 67 | 301 | 3.0 | 6.0 | 0.00 | 0.06 | 0.00 | 94 | 1010.9 |
| 20260509101304 | 67 | 301 | 3.0 | 6.0 | 0.00 | 0.06 | 0.00 | 94 | 1010.8 |
| 20260509101204 | 67 | 302 | 3.0 | 6.0 | 0.00 | 0.06 | 0.00 | 94 | 1010.8 |
| 20260509101104 | 67 | 303 | 3.0 | 6.0 | 0.00 | 0.06 | 0.00 | 94 | 1010.8 |
| 20260509101004 | 67 | 304 | 3.0 | 6.0 | 0.00 | 0.06 | 0.00 | 94 | 1010.8 |
| 20260509100904 | 67 | 305 | 3.0 | 4.0 | 0.00 | 0.06 | 0.00 | 94 | 1010.8 |
| 20260509100805 | 67 | 305 | 2.0 | 4.0 | 0.00 | 0.06 | 0.00 | 94 | 1010.8 |
| 20260509100703 | 67 | 308 | 2.0 | 3.0 | 0.00 | 0.06 | 0.00 | 94 | 1010.7 |
| 20260509100604 | 67 | 315 | 2.0 | 3.0 | 0.00 | 0.06 | 0.00 | 94 | 1010.7 |
| 20260509100404 | 67 | 327 | 2.0 | 3.0 | 0.00 | 0.06 | 0.00 | 94 | 1010.7 |
| 20260509100303 | 67 | 331 | 2.0 | 3.0 | 0.00 | 0.06 | 0.00 | 94 | 1010.7 |
| 20260509100204 | 67 | 335 | 2.0 | 3.0 | 0.00 | 0.06 | 0.00 | 94 | 1010.7 |
| 20260509100104 | 67 | 338 | 2.0 | 3.0 | 0.00 | 0.06 | 0.00 | 94 | 1010.6 |
| 20260509100004 | 67 | 344 | 1.0 | 3.0 | 0.00 | 0.06 | 0.00 | 94 | 1010.5 |
| 20260509095904 | 67 | 354 | 1.0 | 3.0 | 0.00 | 0.06 | 0.00 | 94 | 1010.5 |
| 20260509095803 | 67 | 5 | 1.0 | 3.0 | 0.00 | 0.06 | 0.00 | 94 | 1010.4 |
| 20260509095504 | 67 | 11 | 1.0 | 2.0 | 0.00 | 0.06 | 0.00 | 94 | 1010.3 |
| 20260509095404 | 67 | 11 | 1.0 | 2.0 | 0.00 | 0.06 | 0.00 | 94 | 1010.3 |
| 20260509095306 | 67 | 11 | 1.0 | 2.0 | 0.00 | 0.06 | 0.00 | 94 | 1010.3 |
| 20260509095204 | 67 | 11 | 0.0 | 2.0 | 0.00 | 0.06 | 0.00 | 94 | 1010.3 |
| 20260509095004 | 67 | 11 | 0.0 | 2.0 | 0.00 | 0.06 | 0.00 | 94 | 1010.2 |
| 20260509094903 | 67 | 11 | 0.0 | 2.0 | 0.00 | 0.06 | 0.00 | 94 | 1010.3 |
| 20260509094804 | 67 | 11 | 0.0 | 2.0 | 0.00 | 0.06 | 0.00 | 94 | 1010.2 |
| 20260509094604 | 67 | 11 | 0.0 | 1.0 | 0.00 | 0.06 | 0.00 | 94 | 1010.3 |
| 20260509094504 | 67 | 11 | 1.0 | 1.0 | 0.00 | 0.06 | 0.00 | 94 | 1010.3 |
| 20260509094404 | 67 | 11 | 1.0 | 1.0 | 0.00 | 0.06 | 0.00 | 94 | 1010.3 |
| 20260509094203 | 67 | 11 | 1.0 | 1.0 | 0.00 | 0.06 | 0.00 | 94 | 1010.3 |
| 20260509094104 | 67 | 11 | 1.0 | 1.0 | 0.00 | 0.06 | 0.00 | 94 | 1010.3 |
| 20260509093904 | 67 | 11 | 1.0 | 2.0 | 0.00 | 0.06 | 0.00 | 94 | 1010.2 |
| 20260509093804 | 67 | 11 | 1.0 | 2.0 | 0.00 | 0.06 | 0.00 | 94 | 1010.1 |
| 20260509093705 | 67 | 11 | 1.0 | 2.0 | 0.00 | 0.06 | 0.00 | 94 | 1010.1 |
| 20260509093604 | 67 | 11 | 1.0 | 2.0 | 0.00 | 0.06 | 0.00 | 94 | 1010.0 |
| 20260509093504 | 67 | 11 | 1.0 | 2.0 | 0.00 | 0.06 | 0.00 | 94 | 1010.1 |
| 20260509093404 | 67 | 11 | 1.0 | 2.0 | 0.00 | 0.06 | 0.00 | 94 | 1010.1 |
| 20260509093304 | 67 | 11 | 1.0 | 2.0 | 0.00 | 0.06 | 0.00 | 94 | 1010.0 |
| 20260509093204 | 67 | 11 | 1.0 | 2.0 | 0.00 | 0.06 | 0.00 | 94 | 1010.0 |
| 20260509093104 | 67 | 11 | 1.0 | 3.0 | 0.00 | 0.06 | 0.00 | 94 | 1010.1 |
| 20260509093004 | 67 | 12 | 1.0 | 3.0 | 0.00 | 0.06 | 0.00 | 94 | 1010.1 |
| 20260509092904 | 67 | 9 | 1.0 | 3.0 | 0.00 | 0.06 | 0.00 | 94 | 1010.0 |
| 20260509092804 | 67 | 12 | 1.0 | 4.0 | 0.00 | 0.06 | 0.00 | 94 | 1010.1 |
| 20260509092704 | 68 | 13 | 2.0 | 4.0 | 0.00 | 0.06 | 0.00 | 94 | 1010.1 |
| 20260509092604 | 68 | 13 | 2.0 | 4.0 | 0.00 | 0.06 | 0.00 | 94 | 1010.2 |
| 20260509092504 | 68 | 12 | 2.0 | 4.0 | 0.00 | 0.06 | 0.00 | 94 | 1010.2 |
| 20260509092404 | 68 | 10 | 2.0 | 4.0 | 0.00 | 0.06 | 0.00 | 94 | 1010.3 |
| 20260509092305 | 68 | 9 | 2.0 | 4.0 | 0.00 | 0.06 | 0.00 | 94 | 1010.3 |
| 20260509092204 | 67 | 9 | 2.0 | 4.0 | 0.00 | 0.06 | 0.00 | 94 | 1010.3 |
| 20260509092104 | 67 | 8 | 1.0 | 4.0 | 0.00 | 0.06 | 0.00 | 94 | 1010.4 |
| 20260509092004 | 67 | 6 | 1.0 | 4.0 | 0.00 | 0.06 | 0.00 | 94 | 1010.4 |
| 20260509091704 | 67 | 357 | 1.0 | 3.0 | 0.00 | 0.06 | 0.00 | 94 | 1010.3 |
| 20260509091605 | 67 | 353 | 1.0 | 3.0 | 0.00 | 0.06 | 0.00 | 94 | 1010.3 |
| 20260509091504 | 67 | 351 | 1.0 | 3.0 | 0.00 | 0.06 | 0.00 | 94 | 1010.2 |
| 20260509091403 | 68 | 351 | 0.0 | 2.0 | 0.00 | 0.06 | 0.00 | 94 | 1010.1 |
| 20260509091304 | 68 | 351 | 0.0 | 2.0 | 0.00 | 0.06 | 0.00 | 94 | 1010.1 |
| 20260509091204 | 68 | 351 | 0.0 | 2.0 | 0.00 | 0.06 | 0.00 | 94 | 1010.1 |
| 20260509091104 | 68 | 351 | 0.0 | 2.0 | 0.00 | 0.06 | 0.00 | 94 | 1010.0 |
| 20260509091004 | 68 | 351 | 1.0 | 2.0 | 0.00 | 0.06 | 0.00 | 94 | 1010.0 |
| 20260509090903 | 68 | 353 | 1.0 | 2.0 | 0.00 | 0.06 | 0.00 | 94 | 1010.1 |
| 20260509090804 | 68 | 357 | 1.0 | 3.0 | 0.00 | 0.06 | 0.00 | 94 | 1010.1 |
| 20260509090703 | 68 | 359 | 1.0 | 4.0 | 0.00 | 0.06 | 0.00 | 94 | 1010.1 |
| 20260509090604 | 68 | 1 | 1.0 | 4.0 | 0.00 | 0.06 | 0.00 | 94 | 1010.2 |
| 20260509090505 | 68 | 3 | 1.0 | 4.0 | 0.00 | 0.06 | 0.00 | 94 | 1010.2 |
| 20260509090404 | 68 | 3 | 2.0 | 4.0 | 0.00 | 0.06 | 0.00 | 94 | 1010.2 |
| 20260509090303 | 68 | 4 | 2.0 | 5.0 | 0.00 | 0.06 | 0.00 | 94 | 1010.3 |
| 20260509090204 | 68 | 5 | 2.0 | 5.0 | 0.00 | 0.06 | 0.00 | 94 | 1010.3 |
| 20260509090005 | 67 | 7 | 2.0 | 5.0 | 0.00 | 0.06 | 0.00 | 94 | 1010.3 |
| 20260509085804 | 67 | 2 | 2.0 | 5.0 | 0.00 | 0.06 | 0.00 | 94 | 1010.4 |
| 20260509085703 | 67 | 358 | 2.0 | 5.0 | 0.00 | 0.06 | 0.00 | 94 | 1010.4 |
| 20260509085604 | 67 | 354 | 2.0 | 5.0 | 0.00 | 0.06 | 0.00 | 94 | 1010.4 |
| 20260509085404 | 67 | 345 | 2.0 | 5.0 | 0.00 | 0.06 | 0.00 | 94 | 1010.4 |
| 20260509085306 | 67 | 336 | 2.0 | 4.0 | 0.00 | 0.06 | 0.00 | 94 | 1010.4 |
| 20260509085204 | 67 | 324 | 1.0 | 3.0 | 0.00 | 0.06 | 0.00 | 94 | 1010.4 |
| 20260509085104 | 67 | 309 | 1.0 | 2.0 | 0.00 | 0.06 | 0.00 | 94 | 1010.3 |
| 20260509085003 | 67 | 290 | 1.0 | 2.0 | 0.00 | 0.06 | 0.00 | 94 | 1010.2 |
| 20260509084904 | 67 | 270 | 1.0 | 2.0 | 0.00 | 0.06 | 0.00 | 93 | 1010.1 |
| 20260509084804 | 67 | 243 | 1.0 | 2.0 | 0.00 | 0.06 | 0.00 | 93 | 1010.1 |
| 20260509084704 | 67 | 221 | 1.0 | 2.0 | 0.00 | 0.06 | 0.00 | 93 | 1010.0 |
| 20260509084503 | 67 | 197 | 1.0 | 2.0 | 0.00 | 0.06 | 0.00 | 93 | 1009.9 |
| 20260509084404 | 67 | 193 | 1.0 | 2.0 | 0.00 | 0.06 | 0.00 | 93 | 1009.9 |
| 20260509084303 | 67 | 188 | 1.0 | 2.0 | 0.00 | 0.06 | 0.00 | 93 | 1009.9 |
| 20260509084105 | 67 | 187 | 1.0 | 2.0 | 0.00 | 0.06 | 0.00 | 93 | 1009.8 |
| 20260509084004 | 67 | 187 | 1.0 | 2.0 | 0.00 | 0.06 | 0.00 | 93 | 1009.8 |
| 20260509083904 | 68 | 187 | 1.0 | 2.0 | 0.00 | 0.06 | 0.00 | 93 | 1009.8 |
| 20260509083805 | 68 | 187 | 1.0 | 2.0 | 0.00 | 0.06 | 0.00 | 93 | 1009.8 |
| 20260509083704 | 68 | 187 | 1.0 | 2.0 | 0.00 | 0.06 | 0.00 | 93 | 1009.8 |
| 20260509083603 | 68 | 187 | 1.0 | 2.0 | 0.00 | 0.06 | 0.00 | 93 | 1009.8 |
| 20260509083504 | 68 | 187 | 1.0 | 2.0 | 0.00 | 0.06 | 0.00 | 93 | 1009.7 |
| 20260509083406 | 68 | 187 | 1.0 | 2.0 | 0.00 | 0.06 | 0.00 | 93 | 1009.7 |
| 20260509083304 | 68 | 187 | 1.0 | 2.0 | 0.00 | 0.06 | 0.00 | 93 | 1009.6 |
| 20260509083204 | 68 | 187 | 1.0 | 3.0 | 0.00 | 0.06 | 0.00 | 93 | 1009.6 |
| 20260509083104 | 68 | 186 | 1.0 | 4.0 | 0.00 | 0.06 | 0.00 | 93 | 1009.6 |
| 20260509083003 | 68 | 184 | 2.0 | 4.0 | 0.00 | 0.06 | 0.00 | 93 | 1009.5 |
| 20260509082904 | 68 | 184 | 2.0 | 4.0 | 0.00 | 0.06 | 0.00 | 93 | 1009.4 |
| 20260509082804 | 68 | 184 | 2.0 | 4.0 | 0.00 | 0.06 | 0.00 | 93 | 1009.4 |
| 20260509082705 | 68 | 184 | 3.0 | 4.0 | 0.00 | 0.06 | 0.00 | 93 | 1009.3 |
| 20260509082604 | 68 | 183 | 3.0 | 4.0 | 0.00 | 0.06 | 0.00 | 93 | 1009.3 |
| 20260509082503 | 68 | 182 | 3.0 | 4.0 | 0.00 | 0.06 | 0.00 | 93 | 1009.2 |
| 20260509082404 | 68 | 181 | 3.0 | 4.0 | 0.00 | 0.06 | 0.00 | 93 | 1009.3 |
| 20260509082306 | 68 | 179 | 3.0 | 4.0 | 0.00 | 0.06 | 0.00 | 93 | 1009.2 |
| 20260509082203 | 68 | 178 | 3.0 | 4.0 | 0.00 | 0.06 | 0.00 | 93 | 1009.2 |
| 20260509082104 | 68 | 177 | 2.0 | 4.0 | 0.00 | 0.06 | 0.00 | 93 | 1009.2 |
| 20260509082004 | 68 | 176 | 2.0 | 4.0 | 0.00 | 0.06 | 0.00 | 93 | 1009.1 |
| 20260509081904 | 68 | 173 | 1.0 | 4.0 | 0.00 | 0.06 | 0.00 | 93 | 1009.2 |
| 20260509081804 | 68 | 161 | 1.0 | 4.0 | 0.00 | 0.06 | 0.00 | 93 | 1009.3 |
| 20260509081704 | 68 | 102 | 1.0 | 4.0 | 0.00 | 0.06 | 0.00 | 93 | 1009.4 |
| 20260509081604 | 67 | 15 | 0.0 | 4.0 | 0.00 | 0.06 | 0.00 | 93 | 1009.5 |
| 20260509081504 | 67 | 9 | 0.0 | 3.0 | 0.00 | 0.06 | 0.00 | 93 | 1009.5 |
| 20260509081404 | 68 | 9 | 0.0 | 2.0 | 0.00 | 0.06 | 0.00 | 93 | 1009.6 |
| 20260509081304 | 68 | 9 | 0.0 | 1.0 | 0.00 | 0.06 | 0.00 | 93 | 1009.6 |
| 20260509081205 | 68 | 9 | 0.0 | 2.0 | 0.00 | 0.06 | 0.00 | 93 | 1009.6 |
| 20260509081104 | 68 | 9 | 0.0 | 2.0 | 0.00 | 0.06 | 0.00 | 93 | 1009.6 |
| 20260509081005 | 68 | 9 | 1.0 | 2.0 | 0.00 | 0.06 | 0.00 | 93 | 1009.7 |
| 20260509080904 | 68 | 9 | 1.0 | 2.0 | 0.00 | 0.06 | 0.00 | 93 | 1009.7 |
| 20260509080804 | 68 | 9 | 1.0 | 2.0 | 0.00 | 0.06 | 0.00 | 93 | 1009.8 |
| 20260509080504 | 68 | 350 | 1.0 | 2.0 | 0.00 | 0.06 | 0.00 | 93 | 1009.9 |
| 20260509080404 | 68 | 344 | 1.0 | 2.0 | 0.00 | 0.06 | 0.00 | 93 | 1010.0 |
| 20260509080303 | 68 | 327 | 1.0 | 2.0 | 0.00 | 0.06 | 0.00 | 93 | 1010.0 |
| 20260509080204 | 68 | 304 | 1.0 | 2.0 | 0.00 | 0.06 | 0.00 | 93 | 1010.0 |
| 20260509080004 | 69 | 246 | 1.0 | 2.0 | 0.00 | 0.06 | 0.00 | 93 | 1010.0 |
| 20260509075903 | 69 | 230 | 1.0 | 2.0 | 0.00 | 0.06 | 0.00 | 93 | 1010.0 |
| 20260509075804 | 69 | 218 | 1.0 | 2.0 | 0.00 | 0.06 | 0.00 | 93 | 1010.0 |
| 20260509075703 | 69 | 208 | 1.0 | 2.0 | 0.00 | 0.06 | 0.00 | 93 | 1010.0 |
| 20260509075604 | 69 | 206 | 1.0 | 1.0 | 0.00 | 0.06 | 0.00 | 93 | 1010.0 |
| 20260509075404 | 69 | 206 | 0.0 | 2.0 | 0.00 | 0.06 | 0.00 | 93 | 1010.0 |
| 20260509075306 | 69 | 206 | 1.0 | 2.0 | 0.00 | 0.06 | 0.00 | 93 | 1010.1 |
| 20260509075203 | 69 | 206 | 1.0 | 2.0 | 0.00 | 0.06 | 0.00 | 93 | 1010.1 |
| 20260509075104 | 69 | 206 | 1.0 | 3.0 | 0.00 | 0.06 | 0.00 | 93 | 1010.2 |
| 20260509075005 | 69 | 208 | 1.0 | 5.0 | 0.00 | 0.06 | 0.00 | 93 | 1010.2 |
| 20260509074904 | 69 | 208 | 1.0 | 5.0 | 0.00 | 0.06 | 0.00 | 93 | 1010.2 |
| 20260509074804 | 69 | 207 | 1.0 | 5.0 | 0.00 | 0.06 | 0.00 | 93 | 1010.2 |
| 20260509074604 | 69 | 205 | 2.0 | 5.0 | 0.00 | 0.06 | 0.00 | 93 | 1010.3 |
| 20260509074304 | 70 | 201 | 2.0 | 5.0 | 0.00 | 0.06 | 0.00 | 93 | 1010.3 |
| 20260509074104 | 70 | 198 | 2.0 | 5.0 | 0.00 | 0.06 | 0.00 | 93 | 1010.3 |
| 20260509074004 | 70 | 196 | 2.0 | 5.0 | 0.00 | 0.06 | 0.00 | 93 | 1010.3 |
| 20260509073904 | 70 | 195 | 2.0 | 5.0 | 0.00 | 0.06 | 0.00 | 93 | 1010.3 |
| 20260509073804 | 70 | 194 | 2.0 | 5.0 | 0.00 | 0.06 | 0.00 | 93 | 1010.3 |
| 20260509073704 | 70 | 196 | 2.0 | 5.0 | 0.00 | 0.06 | 0.00 | 93 | 1010.3 |
| 20260509073604 | 70 | 194 | 2.0 | 6.0 | 0.00 | 0.06 | 0.00 | 93 | 1010.3 |
| 20260509073504 | 70 | 193 | 2.0 | 6.0 | 0.00 | 0.06 | 0.00 | 93 | 1010.4 |
| 20260509073405 | 70 | 192 | 3.0 | 6.0 | 0.00 | 0.06 | 0.00 | 93 | 1010.4 |
| 20260509073303 | 70 | 192 | 3.0 | 6.0 | 0.00 | 0.06 | 0.00 | 93 | 1010.4 |
| 20260509073203 | 70 | 192 | 3.0 | 6.0 | 0.00 | 0.06 | 0.00 | 93 | 1010.4 |
| 20260509073104 | 70 | 193 | 3.0 | 6.0 | 0.00 | 0.06 | 0.00 | 93 | 1010.4 |
| 20260509072903 | 70 | 194 | 3.0 | 6.0 | 0.00 | 0.06 | 0.00 | 93 | 1010.3 |
| 20260509072805 | 70 | 194 | 3.0 | 6.0 | 0.00 | 0.06 | 0.00 | 93 | 1010.3 |
| 20260509072604 | 69 | 196 | 3.0 | 6.0 | 0.00 | 0.06 | 0.00 | 93 | 1010.1 |
| 20260509072504 | 69 | 199 | 3.0 | 6.0 | 0.00 | 0.06 | 0.00 | 93 | 1010.1 |
| 20260509072104 | 69 | 203 | 3.0 | 6.0 | 0.00 | 0.06 | 0.00 | 93 | 1010.0 |
| 20260509072004 | 69 | 203 | 3.0 | 6.0 | 0.00 | 0.06 | 0.00 | 93 | 1010.0 |
| 20260509071903 | 69 | 203 | 3.0 | 6.0 | 0.00 | 0.06 | 0.00 | 93 | 1010.0 |
| 20260509071603 | 69 | 197 | 2.0 | 5.0 | 0.00 | 0.06 | 0.00 | 93 | 1010.0 |
| 20260509071504 | 69 | 193 | 2.0 | 4.0 | 0.00 | 0.06 | 0.00 | 92 | 1009.9 |
| 20260509071404 | 69 | 191 | 2.0 | 4.0 | 0.00 | 0.06 | 0.00 | 92 | 1009.9 |
| 20260509071304 | 69 | 188 | 2.0 | 4.0 | 0.00 | 0.06 | 0.00 | 92 | 1009.9 |
| 20260509071204 | 69 | 187 | 2.0 | 4.0 | 0.00 | 0.06 | 0.00 | 92 | 1009.9 |
| 20260509071104 | 69 | 184 | 1.0 | 4.0 | 0.00 | 0.06 | 0.00 | 92 | 1009.9 |
| 20260509071004 | 69 | 181 | 1.0 | 3.0 | 0.00 | 0.06 | 0.00 | 92 | 1009.9 |
| 20260509070904 | 69 | 178 | 1.0 | 3.0 | 0.00 | 0.06 | 0.00 | 92 | 1010.0 |
| 20260509070804 | 69 | 175 | 1.0 | 3.0 | 0.00 | 0.06 | 0.00 | 92 | 1009.9 |
| 20260509070404 | 69 | 175 | 1.0 | 2.0 | 0.00 | 0.06 | 0.00 | 92 | 1010.2 |
| 20260509070303 | 69 | 174 | 1.0 | 2.0 | 0.00 | 0.06 | 0.00 | 92 | 1010.2 |
| 20260509070204 | 69 | 175 | 1.0 | 2.0 | 0.00 | 0.06 | 0.00 | 92 | 1010.2 |
| 20260509070004 | 70 | 175 | 1.0 | 2.0 | 0.00 | 0.06 | 0.00 | 92 | 1010.1 |
| 20260509065904 | 70 | 175 | 1.0 | 2.0 | 0.00 | 0.06 | 0.00 | 92 | 1010.1 |
| 20260509065804 | 70 | 175 | 1.0 | 4.0 | 0.00 | 0.06 | 0.00 | 92 | 1010.1 |
| 20260509065703 | 70 | 175 | 2.0 | 4.0 | 0.00 | 0.06 | 0.00 | 92 | 1010.1 |
| 20260509065503 | 70 | 174 | 2.0 | 4.0 | 0.00 | 0.06 | 0.00 | 92 | 1010.1 |
| 20260509065404 | 70 | 174 | 2.0 | 4.0 | 0.00 | 0.06 | 0.00 | 92 | 1010.1 |
| 20260509065306 | 70 | 174 | 2.0 | 4.0 | 0.00 | 0.06 | 0.00 | 92 | 1010.2 |
| 20260509065204 | 70 | 175 | 2.0 | 4.0 | 0.00 | 0.06 | 0.00 | 92 | 1010.1 |
| 20260509065103 | 70 | 175 | 2.0 | 4.0 | 0.00 | 0.06 | 0.00 | 92 | 1010.1 |
| 20260509065004 | 70 | 175 | 2.0 | 4.0 | 0.00 | 0.06 | 0.00 | 92 | 1010.1 |
| 20260509064903 | 70 | 177 | 2.0 | 4.0 | 0.00 | 0.06 | 0.00 | 92 | 1010.1 |
| 20260509064504 | 70 | 190 | 2.0 | 3.0 | 0.00 | 0.06 | 0.00 | 92 | 1010.1 |
| 20260509064404 | 70 | 190 | 2.0 | 3.0 | 0.00 | 0.06 | 0.00 | 92 | 1010.1 |
| 20260509064304 | 70 | 189 | 2.0 | 3.0 | 0.00 | 0.06 | 0.00 | 92 | 1010.2 |
| 20260509064203 | 70 | 192 | 2.0 | 4.0 | 0.00 | 0.06 | 0.00 | 92 | 1010.2 |
| 20260509064104 | 70 | 194 | 2.0 | 4.0 | 0.00 | 0.06 | 0.00 | 92 | 1010.2 |
| 20260509064004 | 70 | 196 | 2.0 | 4.0 | 0.00 | 0.06 | 0.00 | 92 | 1010.3 |
| 20260509063803 | 70 | 203 | 2.0 | 4.0 | 0.00 | 0.06 | 0.00 | 92 | 1010.5 |
| 20260509063704 | 70 | 207 | 2.0 | 4.0 | 0.00 | 0.06 | 0.00 | 92 | 1010.5 |
| 20260509063603 | 70 | 210 | 2.0 | 4.0 | 0.00 | 0.06 | 0.00 | 92 | 1010.5 |
| 20260509063504 | 70 | 212 | 1.0 | 4.0 | 0.00 | 0.06 | 0.00 | 93 | 1010.5 |
| 20260509063403 | 69 | 216 | 1.0 | 4.0 | 0.00 | 0.06 | 0.00 | 92 | 1010.5 |
| 20260509063305 | 69 | 221 | 1.0 | 4.0 | 0.00 | 0.06 | 0.00 | 92 | 1010.5 |
| 20260509063203 | 69 | 224 | 1.0 | 4.0 | 0.00 | 0.06 | 0.00 | 92 | 1010.5 |
| 20260509063104 | 69 | 228 | 1.0 | 4.0 | 0.00 | 0.06 | 0.00 | 92 | 1010.5 |
| 20260509063003 | 69 | 240 | 0.0 | 3.0 | 0.00 | 0.06 | 0.00 | 92 | 1010.5 |
| 20260509062904 | 69 | 241 | 0.0 | 3.0 | 0.00 | 0.06 | 0.00 | 92 | 1010.4 |
| 20260509062803 | 69 | 241 | 0.0 | 3.0 | 0.00 | 0.06 | 0.00 | 92 | 1010.4 |
| 20260509062704 | 69 | 240 | 0.0 | 2.0 | 0.00 | 0.06 | 0.00 | 92 | 1010.3 |
| 20260509062605 | 69 | 241 | 0.0 | 1.0 | 0.00 | 0.06 | 0.00 | 92 | 1010.2 |
| 20260509062505 | 69 | 241 | 0.0 | 1.0 | 0.00 | 0.06 | 0.00 | 92 | 1010.2 |
| 20260509062406 | 69 | 241 | 0.0 | 1.0 | 0.00 | 0.06 | 0.00 | 92 | 1010.2 |
| 20260509062306 | 69 | 240 | 0.0 | 2.0 | 0.00 | 0.06 | 0.00 | 92 | 1010.2 |
| 20260509062206 | 70 | 241 | 0.0 | 2.0 | 0.00 | 0.06 | 0.00 | 92 | 1010.2 |
| 20260509062105 | 70 | 251 | 0.0 | 2.0 | 0.00 | 0.06 | 0.00 | 92 | 1010.1 |
| 20260509062007 | 70 | 287 | 1.0 | 2.0 | 0.00 | 0.06 | 0.00 | 92 | 1010.1 |
| 20260509061906 | 70 | 320 | 1.0 | 2.0 | 0.00 | 0.06 | 0.00 | 92 | 1010.1 |
| 20260509061706 | 70 | 355 | 1.0 | 2.0 | 0.00 | 0.06 | 0.00 | 92 | 1010.1 |
| 20260509061606 | 70 | 2 | 1.0 | 2.0 | 0.00 | 0.06 | 0.00 | 92 | 1010.1 |
| 20260509061406 | 70 | 11 | 1.0 | 2.0 | 0.00 | 0.06 | 0.00 | 92 | 1010.1 |
| 20260509061206 | 69 | 22 | 1.0 | 2.0 | 0.00 | 0.06 | 0.00 | 92 | 1010.1 |
| 20260509061006 | 69 | 25 | 1.0 | 2.0 | 0.00 | 0.06 | 0.00 | 92 | 1010.1 |
| 20260509060905 | 69 | 25 | 1.0 | 2.0 | 0.00 | 0.06 | 0.00 | 92 | 1010.1 |
| 20260509060807 | 69 | 25 | 1.0 | 2.0 | 0.00 | 0.06 | 0.00 | 92 | 1010.2 |
| 20260509060706 | 69 | 25 | 1.0 | 2.0 | 0.00 | 0.06 | 0.00 | 92 | 1010.2 |
| 20260509060606 | 69 | 25 | 1.0 | 2.0 | 0.00 | 0.06 | 0.00 | 92 | 1010.2 |
| 20260509060506 | 69 | 25 | 1.0 | 2.0 | 0.00 | 0.06 | 0.00 | 92 | 1010.3 |
| 20260509060406 | 69 | 25 | 1.0 | 2.0 | 0.00 | 0.06 | 0.00 | 92 | 1010.3 |
| 20260509060306 | 69 | 25 | 1.0 | 2.0 | 0.00 | 0.06 | 0.00 | 92 | 1010.3 |
| 20260509060006 | 69 | 25 | 1.0 | 2.0 | 0.00 | 0.06 | 0.00 | 92 | 1010.2 |
| 20260509055905 | 69 | 25 | 1.0 | 2.0 | 0.00 | 0.06 | 0.00 | 92 | 1010.2 |
| 20260509055806 | 69 | 25 | 1.0 | 2.0 | 0.00 | 0.06 | 0.00 | 92 | 1010.1 |
| 20260509055705 | 69 | 25 | 1.0 | 1.0 | 0.00 | 0.06 | 0.00 | 92 | 1010.1 |
| 20260509055406 | 69 | 25 | 1.0 | 1.0 | 0.00 | 0.06 | 0.00 | 92 | 1010.0 |
| 20260509055307 | 69 | 25 | 1.0 | 1.0 | 0.00 | 0.06 | 0.00 | 92 | 1009.9 |
| 20260509055205 | 69 | 25 | 1.0 | 1.0 | 0.00 | 0.06 | 0.00 | 92 | 1009.9 |
| 20260509055106 | 69 | 25 | 1.0 | 1.0 | 0.00 | 0.06 | 0.00 | 92 | 1009.9 |
| 20260509055005 | 69 | 25 | 1.0 | 2.0 | 0.00 | 0.06 | 0.00 | 92 | 1009.8 |
| 20260509054906 | 69 | 25 | 1.0 | 2.0 | 0.00 | 0.06 | 0.00 | 92 | 1009.9 |
| 20260509054805 | 69 | 25 | 1.0 | 2.0 | 0.00 | 0.06 | 0.00 | 92 | 1009.8 |
| 20260509054706 | 69 | 25 | 1.0 | 2.0 | 0.00 | 0.06 | 0.00 | 92 | 1009.8 |
| 20260509054605 | 69 | 25 | 1.0 | 2.0 | 0.00 | 0.06 | 0.00 | 92 | 1009.8 |
| 20260509054506 | 69 | 25 | 1.0 | 2.0 | 0.00 | 0.06 | 0.00 | 92 | 1009.7 |
| 20260509054406 | 69 | 25 | 1.0 | 2.0 | 0.00 | 0.06 | 0.00 | 92 | 1009.7 |
| 20260509054105 | 69 | 25 | 0.0 | 2.0 | 0.00 | 0.06 | 0.00 | 92 | 1009.7 |
| 20260509054006 | 69 | 25 | 0.0 | 1.0 | 0.00 | 0.06 | 0.00 | 92 | 1009.7 |
| 20260509053905 | 69 | 25 | 0.0 | 1.0 | 0.00 | 0.06 | 0.00 | 92 | 1009.7 |
| 20260509053806 | 69 | 25 | 0.0 | 1.0 | 0.00 | 0.06 | 0.00 | 92 | 1009.6 |
| 20260509053705 | 69 | 25 | 0.0 | 1.0 | 0.00 | 0.06 | 0.00 | 92 | 1009.6 |
| 20260509053606 | 69 | 25 | 0.0 | 1.0 | 0.00 | 0.06 | 0.00 | 92 | 1009.6 |
| 20260509053406 | 69 | 25 | 0.0 | 1.0 | 0.00 | 0.06 | 0.00 | 92 | 1009.5 |
| 20260509053206 | 69 | 25 | 0.0 | 1.0 | 0.00 | 0.06 | 0.00 | 92 | 1009.5 |
| 20260509052906 | 69 | 25 | 0.0 | 1.0 | 0.00 | 0.06 | 0.00 | 92 | 1009.5 |
| 20260509052806 | 69 | 25 | 0.0 | 1.0 | 0.00 | 0.06 | 0.00 | 92 | 1009.4 |
| 20260509052705 | 69 | 25 | 0.0 | 1.0 | 0.00 | 0.06 | 0.00 | 92 | 1009.4 |
| 20260509052606 | 69 | 25 | 0.0 | 1.0 | 0.00 | 0.06 | 0.00 | 92 | 1009.4 |
| 20260509052406 | 69 | 25 | 0.0 | 3.0 | 0.00 | 0.06 | 0.00 | 92 | 1009.4 |
| 20260509052307 | 69 | 25 | 0.0 | 3.0 | 0.00 | 0.06 | 0.00 | 92 | 1009.4 |
| 20260509052105 | 69 | 26 | 1.0 | 3.0 | 0.00 | 0.06 | 0.00 | 92 | 1009.3 |
| 20260509051905 | 69 | 28 | 1.0 | 3.0 | 0.00 | 0.06 | 0.00 | 92 | 1009.3 |
| 20260509051805 | 69 | 29 | 1.0 | 3.0 | 0.00 | 0.06 | 0.00 | 92 | 1009.3 |
| 20260509051605 | 69 | 29 | 1.0 | 3.0 | 0.00 | 0.06 | 0.00 | 92 | 1009.3 |
| 20260509051506 | 69 | 30 | 1.0 | 2.0 | 0.00 | 0.06 | 0.00 | 92 | 1009.3 |
| 20260509051405 | 69 | 30 | 1.0 | 3.0 | 0.00 | 0.06 | 0.00 | 92 | 1009.2 |
| 20260509051206 | 69 | 31 | 1.0 | 3.0 | 0.00 | 0.06 | 0.00 | 92 | 1009.2 |
| 20260509051105 | 69 | 31 | 1.0 | 3.0 | 0.00 | 0.06 | 0.00 | 92 | 1009.2 |
| 20260509051006 | 69 | 31 | 1.0 | 3.0 | 0.00 | 0.06 | 0.00 | 92 | 1009.2 |
| 20260509050905 | 69 | 31 | 1.0 | 3.0 | 0.00 | 0.06 | 0.00 | 92 | 1009.2 |
| 20260509050806 | 69 | 31 | 1.0 | 3.0 | 0.00 | 0.06 | 0.00 | 92 | 1009.2 |
| 20260509050705 | 69 | 30 | 1.0 | 3.0 | 0.00 | 0.06 | 0.00 | 92 | 1009.2 |
| 20260509050606 | 68 | 31 | 0.0 | 3.0 | 0.00 | 0.06 | 0.00 | 92 | 1009.2 |
| 20260509050505 | 68 | 34 | 0.0 | 3.0 | 0.00 | 0.06 | 0.00 | 92 | 1009.2 |
| 20260509050406 | 68 | 43 | 0.0 | 2.0 | 0.00 | 0.06 | 0.00 | 92 | 1009.2 |
| 20260509050305 | 68 | 0 | 0.0 | 0.0 | 0.00 | 0.06 | 0.00 | 92 | 1009.2 |
| 20260509050105 | 68 | 0 | 0.0 | 0.0 | 0.00 | 0.06 | 0.00 | 92 | 1009.2 |
| 20260509050006 | 68 | 0 | 0.0 | 0.0 | 0.00 | 0.06 | 0.00 | 92 | 1009.2 |
| 20260509045905 | 68 | 0 | 0.0 | 0.0 | 0.00 | 0.06 | 0.06 | 92 | 1009.2 |
| 20260509045806 | 68 | 0 | 0.0 | 0.0 | 0.00 | 0.06 | 0.06 | 92 | 1009.2 |
| 20260509045705 | 68 | 0 | 0.0 | 0.0 | 0.00 | 0.06 | 0.06 | 92 | 1009.2 |
| 20260509045505 | 68 | 0 | 0.0 | 0.0 | 0.00 | 0.06 | 0.06 | 92 | 1009.3 |
| 20260509045406 | 68 | 0 | 0.0 | 0.0 | 0.00 | 0.06 | 0.06 | 92 | 1009.3 |
| 20260509045306 | 68 | 0 | 0.0 | 0.0 | 0.00 | 0.06 | 0.06 | 92 | 1009.3 |
| 20260509045206 | 68 | 0 | 0.0 | 0.0 | 0.00 | 0.06 | 0.06 | 92 | 1009.3 |
| 20260509045106 | 68 | 0 | 0.0 | 0.0 | 0.00 | 0.06 | 0.06 | 92 | 1009.3 |
| 20260509045005 | 68 | 0 | 0.0 | 0.0 | 0.00 | 0.06 | 0.06 | 92 | 1009.3 |
| 20260509044906 | 68 | 0 | 0.0 | 0.0 | 0.00 | 0.06 | 0.06 | 92 | 1009.3 |
| 20260509044805 | 68 | 0 | 0.0 | 0.0 | 0.00 | 0.06 | 0.06 | 92 | 1009.3 |
| 20260509044605 | 68 | 0 | 0.0 | 0.0 | 0.00 | 0.06 | 0.06 | 92 | 1009.3 |
| 20260509044505 | 68 | 0 | 0.0 | 0.0 | 0.00 | 0.06 | 0.06 | 92 | 1009.3 |
| 20260509044406 | 68 | 0 | 0.0 | 0.0 | 0.00 | 0.06 | 0.06 | 92 | 1009.3 |
| 20260509044305 | 68 | 0 | 0.0 | 0.0 | 0.00 | 0.06 | 0.06 | 92 | 1009.3 |
| 20260509044206 | 67 | 0 | 0.0 | 0.0 | 0.00 | 0.06 | 0.06 | 92 | 1009.4 |
| 20260509044105 | 67 | 0 | 0.0 | 0.0 | 0.00 | 0.06 | 0.06 | 92 | 1009.4 |
| 20260509044006 | 67 | 0 | 0.0 | 0.0 | 0.00 | 0.06 | 0.06 | 92 | 1009.4 |
| 20260509043905 | 67 | 0 | 0.0 | 0.0 | 0.00 | 0.06 | 0.06 | 92 | 1009.5 |
| 20260509043806 | 67 | 0 | 0.0 | 0.0 | 0.00 | 0.06 | 0.06 | 92 | 1009.4 |
| 20260509043705 | 67 | 0 | 0.0 | 0.0 | 0.00 | 0.06 | 0.06 | 92 | 1009.4 |
| 20260509043606 | 67 | 0 | 0.0 | 0.0 | 0.00 | 0.06 | 0.06 | 92 | 1009.4 |
| 20260509043505 | 67 | 0 | 0.0 | 0.0 | 0.00 | 0.06 | 0.06 | 92 | 1009.4 |
| 20260509043406 | 67 | 0 | 0.0 | 0.0 | 0.00 | 0.06 | 0.06 | 92 | 1009.4 |
| 20260509043305 | 67 | 0 | 0.0 | 0.0 | 0.00 | 0.06 | 0.06 | 92 | 1009.4 |
| 20260509043206 | 67 | 0 | 0.0 | 0.0 | 0.00 | 0.06 | 0.06 | 92 | 1009.4 |
| 20260509043105 | 67 | 0 | 0.0 | 0.0 | 0.00 | 0.06 | 0.06 | 92 | 1009.4 |
| 20260509043006 | 67 | 0 | 0.0 | 0.0 | 0.00 | 0.06 | 0.06 | 92 | 1009.4 |
| 20260509042905 | 67 | 0 | 0.0 | 0.0 | 0.00 | 0.06 | 0.06 | 92 | 1009.4 |
| 20260509042806 | 67 | 0 | 0.0 | 0.0 | 0.00 | 0.06 | 0.06 | 92 | 1009.4 |
| 20260509042705 | 67 | 0 | 0.0 | 0.0 | 0.00 | 0.06 | 0.06 | 92 | 1009.3 |
| 20260509042607 | 67 | 0 | 0.0 | 0.0 | 0.00 | 0.06 | 0.06 | 92 | 1009.4 |
| 20260509042505 | 67 | 0 | 0.0 | 0.0 | 0.00 | 0.06 | 0.06 | 92 | 1009.3 |
| 20260509042406 | 67 | 0 | 0.0 | 0.0 | 0.00 | 0.06 | 0.06 | 92 | 1009.3 |
| 20260509042205 | 67 | 0 | 0.0 | 0.0 | 0.00 | 0.06 | 0.06 | 92 | 1009.3 |
| 20260509042006 | 67 | 0 | 0.0 | 0.0 | 0.00 | 0.06 | 0.06 | 92 | 1009.2 |
| 20260509041905 | 67 | 0 | 0.0 | 0.0 | 0.00 | 0.06 | 0.06 | 92 | 1009.2 |
| 20260509041806 | 67 | 0 | 0.0 | 0.0 | 0.00 | 0.06 | 0.06 | 92 | 1009.2 |
| 20260509041407 | 67 | 0 | 0.0 | 0.0 | 0.00 | 0.06 | 0.06 | 92 | 1009.3 |
| 20260509041305 | 67 | 0 | 0.0 | 0.0 | 0.00 | 0.06 | 0.06 | 92 | 1009.3 |
| 20260509041106 | 67 | 0 | 0.0 | 0.0 | 0.00 | 0.06 | 0.06 | 92 | 1009.3 |
| 20260509040905 | 67 | 0 | 0.0 | 0.0 | 0.00 | 0.06 | 0.06 | 92 | 1009.3 |
| 20260509040806 | 67 | 0 | 0.0 | 0.0 | 0.00 | 0.06 | 0.06 | 92 | 1009.3 |
| 20260509040606 | 67 | 0 | 0.0 | 0.0 | 0.00 | 0.06 | 0.06 | 91 | 1009.2 |
| 20260509040505 | 68 | 0 | 0.0 | 0.0 | 0.00 | 0.06 | 0.06 | 92 | 1009.2 |
| 20260509040406 | 68 | 0 | 0.0 | 0.0 | 0.00 | 0.06 | 0.06 | 92 | 1009.2 |
| 20260509040305 | 68 | 0 | 0.0 | 0.0 | 0.00 | 0.06 | 0.06 | 92 | 1009.2 |
| 20260509040105 | 68 | 0 | 0.0 | 0.0 | 0.00 | 0.06 | 0.06 | 92 | 1009.2 |
| 20260509040006 | 68 | 0 | 0.0 | 0.0 | 0.00 | 0.06 | 0.06 | 92 | 1009.2 |
| 20260509035806 | 68 | 0 | 0.0 | 0.0 | 0.00 | 0.06 | 0.06 | 92 | 1009.3 |
| 20260509035705 | 68 | 0 | 0.0 | 0.0 | 0.00 | 0.06 | 0.06 | 92 | 1009.3 |
| 20260509035606 | 68 | 0 | 0.0 | 0.0 | 0.00 | 0.06 | 0.06 | 92 | 1009.2 |
| 20260509035505 | 68 | 0 | 0.0 | 0.0 | 0.00 | 0.06 | 0.06 | 91 | 1009.2 |
| 20260509035406 | 68 | 0 | 0.0 | 0.0 | 0.00 | 0.06 | 0.06 | 91 | 1009.2 |
| 20260509035306 | 68 | 0 | 0.0 | 0.0 | 0.00 | 0.06 | 0.06 | 91 | 1009.1 |
| 20260509035206 | 68 | 0 | 0.0 | 0.0 | 0.00 | 0.06 | 0.06 | 91 | 1009.1 |
| 20260509035105 | 68 | 0 | 0.0 | 0.0 | 0.00 | 0.06 | 0.06 | 91 | 1009.1 |
| 20260509035006 | 68 | 0 | 0.0 | 0.0 | 0.00 | 0.06 | 0.06 | 91 | 1009.1 |
| 20260509034905 | 68 | 0 | 0.0 | 0.0 | 0.00 | 0.06 | 0.06 | 91 | 1009.0 |
| 20260509034806 | 68 | 0 | 0.0 | 0.0 | 0.00 | 0.06 | 0.06 | 91 | 1009.1 |
| 20260509034706 | 68 | 0 | 0.0 | 0.0 | 0.00 | 0.06 | 0.06 | 92 | 1009.1 |
| 20260509034606 | 68 | 0 | 0.0 | 0.0 | 0.00 | 0.06 | 0.06 | 92 | 1009.1 |
| 20260509034405 | 68 | 0 | 0.0 | 0.0 | 0.00 | 0.06 | 0.06 | 91 | 1009.0 |
| 20260509034306 | 68 | 0 | 0.0 | 0.0 | 0.00 | 0.06 | 0.06 | 91 | 1009.0 |
| 20260509034205 | 68 | 0 | 0.0 | 0.0 | 0.00 | 0.06 | 0.06 | 91 | 1008.9 |
| 20260509034106 | 68 | 0 | 0.0 | 0.0 | 0.00 | 0.06 | 0.06 | 91 | 1008.9 |
| 20260509034006 | 68 | 0 | 0.0 | 0.0 | 0.00 | 0.06 | 0.06 | 91 | 1008.9 |
| 20260509033906 | 68 | 0 | 0.0 | 0.0 | 0.00 | 0.06 | 0.06 | 91 | 1008.8 |
| 20260509033806 | 68 | 176 | 0.0 | 1.0 | 0.00 | 0.06 | 0.06 | 91 | 1008.9 |
| 20260509033706 | 68 | 176 | 0.0 | 1.0 | 0.00 | 0.06 | 0.06 | 91 | 1008.9 |
| 20260509033607 | 68 | 176 | 0.0 | 1.0 | 0.00 | 0.06 | 0.06 | 91 | 1008.8 |
| 20260509033506 | 68 | 176 | 0.0 | 1.0 | 0.00 | 0.06 | 0.06 | 91 | 1008.9 |
| 20260509033405 | 68 | 176 | 0.0 | 1.0 | 0.00 | 0.06 | 0.06 | 91 | 1008.9 |
| 20260509033306 | 68 | 176 | 0.0 | 1.0 | 0.00 | 0.06 | 0.06 | 91 | 1008.9 |
| 20260509033205 | 68 | 176 | 0.0 | 1.0 | 0.00 | 0.06 | 0.06 | 91 | 1008.9 |
| 20260509033106 | 68 | 175 | 0.0 | 1.0 | 0.00 | 0.06 | 0.06 | 91 | 1008.9 |
| 20260509033005 | 68 | 175 | 0.0 | 1.0 | 0.00 | 0.06 | 0.06 | 91 | 1008.9 |
| 20260509032805 | 68 | 175 | 0.0 | 1.0 | 0.00 | 0.06 | 0.06 | 91 | 1008.9 |
| 20260509032605 | 68 | 175 | 0.0 | 1.0 | 0.00 | 0.06 | 0.06 | 91 | 1008.9 |
| 20260509032506 | 68 | 175 | 0.0 | 1.0 | 0.00 | 0.06 | 0.06 | 91 | 1008.8 |
| 20260509032405 | 68 | 175 | 0.0 | 1.0 | 0.00 | 0.06 | 0.06 | 91 | 1008.9 |
| 20260509032307 | 68 | 175 | 0.0 | 1.0 | 0.00 | 0.06 | 0.06 | 91 | 1008.9 |
| 20260509032106 | 68 | 175 | 0.0 | 1.0 | 0.00 | 0.06 | 0.06 | 91 | 1008.8 |
| 20260509032006 | 68 | 175 | 0.0 | 1.0 | 0.00 | 0.06 | 0.06 | 91 | 1008.8 |
| 20260509031905 | 68 | 176 | 0.0 | 1.0 | 0.00 | 0.06 | 0.06 | 91 | 1008.8 |
| 20260509031806 | 68 | 0 | 0.0 | 0.0 | 0.00 | 0.06 | 0.06 | 91 | 1008.8 |
| 20260509031705 | 68 | 0 | 0.0 | 0.0 | 0.00 | 0.06 | 0.06 | 91 | 1008.8 |
| 20260509031607 | 68 | 0 | 0.0 | 0.0 | 0.00 | 0.06 | 0.06 | 91 | 1008.8 |
| 20260509031505 | 68 | 175 | 0.0 | 1.0 | 0.00 | 0.06 | 0.06 | 91 | 1008.8 |
| 20260509031305 | 68 | 176 | 0.0 | 1.0 | 0.00 | 0.06 | 0.06 | 91 | 1008.8 |
| 20260509031005 | 69 | 175 | 0.0 | 2.0 | 0.00 | 0.06 | 0.06 | 91 | 1008.9 |
| 20260509030906 | 68 | 175 | 1.0 | 2.0 | 0.00 | 0.06 | 0.06 | 91 | 1008.8 |
| 20260509030805 | 69 | 176 | 1.0 | 2.0 | 0.00 | 0.06 | 0.06 | 91 | 1008.7 |
| 20260509030506 | 69 | 176 | 1.0 | 2.0 | 0.00 | 0.06 | 0.06 | 91 | 1008.6 |
| 20260509030405 | 69 | 176 | 1.0 | 2.0 | 0.00 | 0.06 | 0.06 | 91 | 1008.6 |
| 20260509030305 | 69 | 176 | 1.0 | 2.0 | 0.00 | 0.06 | 0.06 | 91 | 1008.5 |
| 20260509030205 | 69 | 176 | 1.0 | 2.0 | 0.00 | 0.06 | 0.06 | 91 | 1008.5 |
| 20260509030106 | 69 | 176 | 1.0 | 2.0 | 0.00 | 0.06 | 0.06 | 91 | 1008.4 |
| 20260509030005 | 69 | 176 | 0.0 | 2.0 | 0.00 | 0.06 | 0.06 | 91 | 1008.5 |
| 20260509025906 | 68 | 176 | 0.0 | 2.0 | 0.00 | 0.06 | 0.06 | 91 | 1008.4 |
| 20260509025805 | 68 | 175 | 0.0 | 1.0 | 0.00 | 0.06 | 0.06 | 91 | 1008.4 |
| 20260509025705 | 69 | 175 | 0.0 | 1.0 | 0.00 | 0.06 | 0.06 | 91 | 1008.4 |
| 20260509025505 | 69 | 175 | 0.0 | 1.0 | 0.00 | 0.06 | 0.06 | 91 | 1008.4 |
| 20260509025406 | 69 | 175 | 0.0 | 1.0 | 0.00 | 0.06 | 0.06 | 91 | 1008.4 |
| 20260509025206 | 69 | 175 | 0.0 | 2.0 | 0.00 | 0.06 | 0.06 | 91 | 1008.4 |
| 20260509025105 | 69 | 175 | 0.0 | 2.0 | 0.00 | 0.06 | 0.06 | 90 | 1008.3 |
| 20260509025006 | 69 | 175 | 1.0 | 2.0 | 0.00 | 0.06 | 0.06 | 90 | 1008.3 |
| 20260509024905 | 69 | 175 | 1.0 | 2.0 | 0.00 | 0.06 | 0.06 | 90 | 1008.3 |
| 20260509024806 | 69 | 175 | 1.0 | 2.0 | 0.00 | 0.06 | 0.06 | 91 | 1008.3 |
| 20260509024705 | 69 | 176 | 1.0 | 2.0 | 0.00 | 0.06 | 0.06 | 91 | 1008.3 |
| 20260509024606 | 69 | 175 | 1.0 | 2.0 | 0.00 | 0.06 | 0.06 | 90 | 1008.3 |
| 20260509024406 | 69 | 175 | 1.0 | 2.0 | 0.00 | 0.06 | 0.06 | 90 | 1008.3 |
| 20260509024305 | 69 | 175 | 0.0 | 2.0 | 0.00 | 0.06 | 0.06 | 90 | 1008.2 |
| 20260509024206 | 69 | 175 | 0.0 | 2.0 | 0.00 | 0.06 | 0.06 | 91 | 1008.3 |
| 20260509024105 | 69 | 175 | 0.0 | 1.0 | 0.00 | 0.06 | 0.06 | 91 | 1008.3 |
| 20260509024006 | 69 | 175 | 0.0 | 1.0 | 0.00 | 0.06 | 0.06 | 91 | 1008.3 |
| 20260509023905 | 69 | 175 | 0.0 | 1.0 | 0.00 | 0.06 | 0.06 | 90 | 1008.3 |
| 20260509023806 | 69 | 176 | 0.0 | 1.0 | 0.00 | 0.06 | 0.06 | 90 | 1008.3 |
| 20260509023305 | 69 | 175 | 0.0 | 1.0 | 0.00 | 0.06 | 0.06 | 90 | 1008.2 |
| 20260509023206 | 69 | 176 | 0.0 | 1.0 | 0.00 | 0.06 | 0.06 | 90 | 1008.3 |
| 20260509023105 | 69 | 175 | 0.0 | 2.0 | 0.00 | 0.06 | 0.06 | 89 | 1008.3 |
| 20260509023007 | 69 | 175 | 1.0 | 2.0 | 0.00 | 0.06 | 0.06 | 89 | 1008.2 |
| 20260509022905 | 70 | 175 | 1.0 | 2.0 | 0.00 | 0.06 | 0.06 | 89 | 1008.2 |
| 20260509022806 | 70 | 176 | 1.0 | 2.0 | 0.00 | 0.06 | 0.06 | 89 | 1008.2 |
| 20260509022606 | 70 | 176 | 1.0 | 2.0 | 0.00 | 0.06 | 0.06 | 89 | 1008.2 |
| 20260509022505 | 70 | 176 | 1.0 | 2.0 | 0.00 | 0.06 | 0.06 | 89 | 1008.2 |
| 20260509022406 | 70 | 176 | 1.0 | 2.0 | 0.00 | 0.06 | 0.06 | 89 | 1008.2 |
| 20260509022307 | 70 | 176 | 1.0 | 2.0 | 0.00 | 0.06 | 0.06 | 89 | 1008.2 |
| 20260509022206 | 70 | 176 | 1.0 | 2.0 | 0.00 | 0.06 | 0.06 | 89 | 1008.1 |
| 20260509022105 | 70 | 176 | 1.0 | 2.0 | 0.00 | 0.06 | 0.06 | 89 | 1008.2 |
| 20260509021605 | 70 | 176 | 1.0 | 3.0 | 0.00 | 0.06 | 0.06 | 89 | 1008.3 |
| 20260509021505 | 70 | 176 | 1.0 | 3.0 | 0.00 | 0.06 | 0.06 | 89 | 1008.3 |
| 20260509021406 | 70 | 176 | 2.0 | 3.0 | 0.00 | 0.06 | 0.06 | 89 | 1008.2 |
| 20260509021305 | 70 | 176 | 2.0 | 3.0 | 0.00 | 0.06 | 0.06 | 89 | 1008.2 |
| 20260509021207 | 70 | 176 | 2.0 | 3.0 | 0.00 | 0.06 | 0.06 | 89 | 1008.2 |
| 20260509021105 | 70 | 176 | 2.0 | 3.0 | 0.00 | 0.06 | 0.06 | 89 | 1008.2 |
| 20260509021006 | 70 | 176 | 2.0 | 3.0 | 0.00 | 0.06 | 0.06 | 89 | 1008.2 |
| 20260509020905 | 70 | 174 | 2.0 | 3.0 | 0.00 | 0.06 | 0.06 | 89 | 1008.2 |
| 20260509020806 | 70 | 172 | 2.0 | 3.0 | 0.00 | 0.06 | 0.06 | 89 | 1008.1 |
| 20260509020705 | 70 | 169 | 2.0 | 3.0 | 0.00 | 0.06 | 0.06 | 89 | 1008.1 |
| 20260509020606 | 70 | 165 | 2.0 | 3.0 | 0.00 | 0.06 | 0.06 | 89 | 1008.1 |
| 20260509020505 | 70 | 161 | 2.0 | 3.0 | 0.00 | 0.06 | 0.06 | 89 | 1008.1 |
| 20260509020406 | 70 | 157 | 2.0 | 3.0 | 0.00 | 0.06 | 0.06 | 89 | 1008.0 |
| 20260509020305 | 70 | 154 | 2.0 | 3.0 | 0.00 | 0.06 | 0.06 | 89 | 1008.0 |
| 20260509020205 | 70 | 151 | 2.0 | 3.0 | 0.00 | 0.06 | 0.06 | 89 | 1008.0 |
| 20260509020105 | 70 | 147 | 2.0 | 3.0 | 0.00 | 0.06 | 0.06 | 89 | 1008.0 |
| 20260509015905 | 70 | 138 | 1.0 | 3.0 | 0.00 | 0.06 | 0.06 | 89 | 1008.0 |
| 20260509015806 | 70 | 134 | 1.0 | 3.0 | 0.00 | 0.06 | 0.06 | 89 | 1008.0 |
| 20260509015705 | 70 | 128 | 1.0 | 3.0 | 0.00 | 0.06 | 0.06 | 89 | 1008.0 |
| 20260509015605 | 70 | 122 | 1.0 | 3.0 | 0.00 | 0.06 | 0.06 | 89 | 1008.0 |
| 20260509015505 | 70 | 112 | 1.0 | 3.0 | 0.00 | 0.06 | 0.06 | 89 | 1008.0 |
| 20260509015406 | 70 | 100 | 1.0 | 2.0 | 0.00 | 0.06 | 0.06 | 89 | 1007.9 |
| 20260509015306 | 70 | 89 | 1.0 | 2.0 | 0.00 | 0.06 | 0.06 | 89 | 1007.9 |
| 20260509015206 | 70 | 81 | 1.0 | 2.0 | 0.00 | 0.06 | 0.06 | 89 | 1007.9 |
| 20260509015106 | 70 | 73 | 1.0 | 2.0 | 0.00 | 0.06 | 0.06 | 88 | 1007.9 |
| 20260509014906 | 70 | 46 | 1.0 | 2.0 | 0.00 | 0.06 | 0.06 | 88 | 1007.9 |
| 20260509014806 | 70 | 36 | 1.0 | 2.0 | 0.00 | 0.06 | 0.06 | 88 | 1007.9 |
| 20260509014705 | 70 | 36 | 1.0 | 2.0 | 0.00 | 0.06 | 0.06 | 88 | 1007.9 |
| 20260509014505 | 70 | 36 | 1.0 | 2.0 | 0.00 | 0.06 | 0.06 | 88 | 1007.9 |
| 20260509014406 | 70 | 36 | 1.0 | 2.0 | 0.00 | 0.06 | 0.06 | 88 | 1007.9 |
| 20260509014305 | 70 | 36 | 1.0 | 2.0 | 0.00 | 0.06 | 0.06 | 88 | 1007.9 |
| 20260509014206 | 70 | 36 | 1.0 | 2.0 | 0.00 | 0.06 | 0.06 | 88 | 1007.9 |
| 20260509014105 | 70 | 36 | 1.0 | 2.0 | 0.00 | 0.06 | 0.06 | 88 | 1007.9 |
| 20260509014006 | 70 | 36 | 1.0 | 2.0 | 0.00 | 0.06 | 0.06 | 88 | 1007.9 |
| 20260509013905 | 70 | 36 | 0.0 | 2.0 | 0.00 | 0.06 | 0.06 | 88 | 1007.9 |
| 20260509013806 | 71 | 36 | 0.0 | 2.0 | 0.00 | 0.06 | 0.06 | 88 | 1007.9 |
| 20260509013605 | 71 | 36 | 1.0 | 2.0 | 0.00 | 0.06 | 0.06 | 87 | 1007.9 |
| 20260509013305 | 71 | 40 | 1.0 | 3.0 | 0.00 | 0.06 | 0.06 | 87 | 1008.0 |
| 20260509013206 | 71 | 52 | 1.0 | 4.0 | 0.00 | 0.06 | 0.06 | 87 | 1008.0 |
| 20260509013105 | 71 | 58 | 2.0 | 4.0 | 0.00 | 0.06 | 0.06 | 87 | 1007.9 |
| 20260509013006 | 71 | 66 | 2.0 | 4.0 | 0.00 | 0.06 | 0.06 | 87 | 1007.9 |
| 20260509012905 | 71 | 74 | 2.0 | 4.0 | 0.00 | 0.06 | 0.06 | 87 | 1008.0 |
| 20260509012806 | 71 | 83 | 2.0 | 5.0 | 0.00 | 0.06 | 0.06 | 87 | 1008.0 |
| 20260509012705 | 71 | 87 | 2.0 | 5.0 | 0.00 | 0.06 | 0.06 | 87 | 1007.9 |
| 20260509012606 | 71 | 92 | 2.0 | 5.0 | 0.00 | 0.06 | 0.06 | 87 | 1007.9 |
| 20260509012307 | 71 | 109 | 2.0 | 5.0 | 0.00 | 0.06 | 0.06 | 87 | 1007.9 |
| 20260509012205 | 71 | 114 | 2.0 | 5.0 | 0.00 | 0.06 | 0.06 | 87 | 1007.9 |
| 20260509012105 | 71 | 118 | 2.0 | 6.0 | 0.00 | 0.06 | 0.06 | 87 | 1007.9 |
| 20260509012006 | 71 | 121 | 3.0 | 6.0 | 0.00 | 0.06 | 0.06 | 86 | 1007.8 |
| 20260509011905 | 71 | 126 | 3.0 | 7.0 | 0.00 | 0.06 | 0.06 | 86 | 1007.9 |
| 20260509011805 | 71 | 130 | 3.0 | 7.0 | 0.00 | 0.06 | 0.06 | 86 | 1007.9 |
| 20260509011705 | 72 | 133 | 3.0 | 7.0 | 0.00 | 0.06 | 0.06 | 86 | 1007.9 |
| 20260509011605 | 72 | 133 | 3.0 | 7.0 | 0.00 | 0.06 | 0.06 | 86 | 1007.8 |
| 20260509011506 | 72 | 133 | 3.0 | 8.0 | 0.00 | 0.06 | 0.06 | 86 | 1007.8 |
| 20260509011405 | 72 | 133 | 4.0 | 8.0 | 0.00 | 0.06 | 0.06 | 86 | 1007.7 |
| 20260509011205 | 72 | 129 | 4.0 | 8.0 | 0.00 | 0.06 | 0.06 | 86 | 1007.7 |
| 20260509011105 | 72 | 128 | 4.0 | 8.0 | 0.00 | 0.06 | 0.06 | 86 | 1007.7 |
| 20260509011006 | 72 | 127 | 4.0 | 8.0 | 0.00 | 0.06 | 0.06 | 86 | 1007.7 |
| 20260509010805 | 72 | 124 | 4.0 | 8.0 | 0.00 | 0.06 | 0.06 | 86 | 1007.8 |
| 20260509010606 | 72 | 122 | 5.0 | 8.0 | 0.00 | 0.06 | 0.06 | 86 | 1007.7 |
| 20260509010505 | 72 | 121 | 5.0 | 8.0 | 0.00 | 0.06 | 0.06 | 85 | 1007.7 |
| 20260509010406 | 72 | 121 | 4.0 | 8.0 | 0.00 | 0.06 | 0.06 | 85 | 1007.7 |
| 20260509010305 | 72 | 121 | 4.0 | 8.0 | 0.00 | 0.06 | 0.06 | 85 | 1007.7 |
| 20260509010206 | 72 | 120 | 4.0 | 9.0 | 0.00 | 0.06 | 0.06 | 85 | 1007.7 |
| 20260509010105 | 72 | 120 | 4.0 | 9.0 | 0.00 | 0.06 | 0.06 | 85 | 1007.6 |
| 20260509005905 | 72 | 118 | 4.0 | 9.0 | 0.00 | 0.06 | 0.06 | 85 | 1007.6 |
| 20260509005806 | 72 | 117 | 4.0 | 9.0 | 0.00 | 0.06 | 0.06 | 85 | 1007.7 |
| 20260509005705 | 72 | 116 | 4.0 | 9.0 | 0.00 | 0.06 | 0.06 | 85 | 1007.7 |
| 20260509005505 | 72 | 113 | 4.0 | 9.0 | 0.00 | 0.06 | 0.06 | 85 | 1007.6 |
| 20260509005306 | 72 | 109 | 4.0 | 9.0 | 0.00 | 0.06 | 0.06 | 85 | 1007.6 |
| 20260509005105 | 72 | 106 | 4.0 | 8.0 | 0.00 | 0.06 | 0.06 | 85 | 1007.6 |
| 20260509005005 | 72 | 103 | 4.0 | 8.0 | 0.00 | 0.06 | 0.06 | 85 | 1007.7 |
| 20260509004905 | 72 | 101 | 4.0 | 6.0 | 0.00 | 0.06 | 0.06 | 85 | 1007.7 |
| 20260509004805 | 72 | 101 | 4.0 | 9.0 | 0.00 | 0.06 | 0.06 | 85 | 1007.8 |
| 20260509004606 | 72 | 96 | 4.0 | 9.0 | 0.00 | 0.06 | 0.06 | 85 | 1007.8 |
| 20260509004505 | 72 | 96 | 4.0 | 9.0 | 0.00 | 0.06 | 0.06 | 85 | 1007.8 |
| 20260509004406 | 72 | 96 | 4.0 | 9.0 | 0.00 | 0.06 | 0.06 | 85 | 1007.8 |
| 20260509004305 | 72 | 95 | 4.0 | 9.0 | 0.00 | 0.06 | 0.06 | 85 | 1007.8 |
| 20260509004206 | 72 | 93 | 4.0 | 9.0 | 0.00 | 0.06 | 0.06 | 85 | 1007.8 |
| 20260509004006 | 72 | 91 | 4.0 | 9.0 | 0.00 | 0.06 | 0.06 | 85 | 1007.8 |
| 20260509003905 | 72 | 90 | 4.0 | 9.0 | 0.00 | 0.06 | 0.06 | 85 | 1007.9 |
| 20260509003807 | 72 | 88 | 3.0 | 6.0 | 0.00 | 0.06 | 0.06 | 85 | 1007.8 |
| 20260509003606 | 72 | 90 | 3.0 | 6.0 | 0.00 | 0.06 | 0.06 | 85 | 1007.9 |
| 20260509003505 | 72 | 89 | 3.0 | 6.0 | 0.00 | 0.06 | 0.06 | 85 | 1007.9 |
| 20260509003405 | 72 | 90 | 3.0 | 6.0 | 0.00 | 0.06 | 0.06 | 85 | 1007.9 |
| 20260509003305 | 72 | 90 | 3.0 | 6.0 | 0.00 | 0.06 | 0.06 | 85 | 1008.0 |
| 20260509003206 | 72 | 90 | 3.0 | 7.0 | 0.00 | 0.06 | 0.06 | 85 | 1007.9 |
| 20260509003105 | 72 | 91 | 3.0 | 7.0 | 0.00 | 0.06 | 0.06 | 85 | 1008.0 |
| 20260509003005 | 72 | 95 | 3.0 | 7.0 | 0.00 | 0.06 | 0.06 | 85 | 1008.0 |
| 20260509002905 | 72 | 97 | 3.0 | 7.0 | 0.00 | 0.06 | 0.06 | 85 | 1008.0 |
| 20260509002806 | 72 | 99 | 4.0 | 7.0 | 0.00 | 0.06 | 0.06 | 85 | 1007.9 |
| 20260509002705 | 72 | 100 | 4.0 | 7.0 | 0.00 | 0.06 | 0.06 | 85 | 1007.9 |
| 20260509002606 | 72 | 102 | 4.0 | 7.0 | 0.00 | 0.06 | 0.06 | 84 | 1007.9 |
| 20260509002505 | 72 | 104 | 4.0 | 8.0 | 0.00 | 0.06 | 0.06 | 84 | 1007.9 |
| 20260509002406 | 72 | 104 | 5.0 | 8.0 | 0.00 | 0.06 | 0.06 | 84 | 1007.9 |
| 20260509002306 | 72 | 104 | 4.0 | 8.0 | 0.00 | 0.06 | 0.06 | 84 | 1007.9 |
| 20260509002206 | 72 | 105 | 4.0 | 8.0 | 0.00 | 0.06 | 0.06 | 84 | 1007.8 |
| 20260509002105 | 72 | 107 | 4.0 | 8.0 | 0.00 | 0.06 | 0.06 | 84 | 1007.8 |
| 20260509002006 | 72 | 107 | 4.0 | 8.0 | 0.00 | 0.06 | 0.06 | 84 | 1007.8 |
| 20260509001905 | 72 | 108 | 4.0 | 8.0 | 0.00 | 0.06 | 0.06 | 84 | 1007.8 |
| 20260509001806 | 72 | 109 | 4.0 | 8.0 | 0.00 | 0.06 | 0.06 | 84 | 1007.8 |
| 20260509001705 | 72 | 110 | 4.0 | 8.0 | 0.00 | 0.06 | 0.06 | 84 | 1007.9 |
| 20260509001605 | 72 | 111 | 4.0 | 8.0 | 0.00 | 0.06 | 0.06 | 84 | 1007.9 |
| 20260509001505 | 72 | 114 | 4.0 | 8.0 | 0.00 | 0.06 | 0.06 | 84 | 1007.9 |
| 20260509001405 | 72 | 115 | 4.0 | 8.0 | 0.00 | 0.06 | 0.06 | 84 | 1007.9 |
| 20260509001305 | 72 | 117 | 3.0 | 8.0 | 0.00 | 0.06 | 0.06 | 84 | 1007.8 |
| 20260509001205 | 72 | 120 | 3.0 | 8.0 | 0.00 | 0.06 | 0.06 | 84 | 1007.8 |
| 20260509001106 | 72 | 120 | 4.0 | 8.0 | 0.00 | 0.06 | 0.06 | 84 | 1007.9 |
| 20260509001005 | 72 | 122 | 4.0 | 8.0 | 0.00 | 0.06 | 0.06 | 84 | 1007.8 |
| 20260509000905 | 72 | 122 | 4.0 | 9.0 | 0.00 | 0.06 | 0.06 | 84 | 1007.8 |
| 20260509000805 | 72 | 122 | 4.0 | 9.0 | 0.00 | 0.06 | 0.06 | 84 | 1007.8 |
| 20260509000705 | 72 | 121 | 4.0 | 9.0 | 0.00 | 0.06 | 0.06 | 84 | 1007.8 |
| 20260509000605 | 72 | 121 | 4.0 | 9.0 | 0.00 | 0.06 | 0.06 | 84 | 1007.8 |
| 20260509000505 | 72 | 120 | 5.0 | 9.0 | 0.00 | 0.06 | 0.06 | 84 | 1007.8 |
| 20260509000305 | 72 | 120 | 5.0 | 9.0 | 0.00 | 0.06 | 0.06 | 84 | 1007.9 |
| 20260509000206 | 72 | 119 | 5.0 | 9.0 | 0.00 | 0.06 | 0.06 | 84 | 1007.8 |
| 20260509000105 | 72 | 118 | 5.0 | 9.0 | 0.00 | 0.06 | 0.06 | 83 | 1007.9 |
| 20260509000005 | 72 | 117 | 5.0 | 9.0 | 0.00 | 0.06 | 0.06 | 83 | 1007.9 |
| 20260508235906 | 72 | 116 | 5.0 | 9.0 | 0.00 | 0.06 | 0.06 | 83 | 1007.9 |
| 20260508235705 | 72 | 114 | 5.0 | 9.0 | 0.00 | 0.06 | 0.06 | 83 | 1007.8 |
| 20260508235606 | 72 | 113 | 5.0 | 10.0 | 0.00 | 0.06 | 0.06 | 83 | 1007.8 |
| 20260508235505 | 72 | 113 | 5.0 | 10.0 | 0.00 | 0.06 | 0.06 | 83 | 1007.8 |
| 20260508235406 | 72 | 111 | 5.0 | 10.0 | 0.00 | 0.06 | 0.06 | 84 | 1007.8 |
| 20260508235306 | 72 | 110 | 5.0 | 10.0 | 0.00 | 0.06 | 0.06 | 83 | 1007.9 |
| 20260508235206 | 72 | 110 | 5.0 | 10.0 | 0.00 | 0.06 | 0.06 | 83 | 1008.0 |
| 20260508235105 | 72 | 110 | 5.0 | 10.0 | 0.00 | 0.06 | 0.06 | 83 | 1007.9 |
| 20260508235006 | 72 | 108 | 5.0 | 10.0 | 0.00 | 0.06 | 0.06 | 83 | 1008.0 |
| 20260508234905 | 72 | 107 | 4.0 | 10.0 | 0.00 | 0.06 | 0.06 | 83 | 1008.0 |
| 20260508234805 | 72 | 104 | 4.0 | 10.0 | 0.00 | 0.06 | 0.06 | 83 | 1008.0 |
| 20260508234706 | 72 | 103 | 4.0 | 10.0 | 0.00 | 0.06 | 0.06 | 83 | 1008.0 |
| 20260508234605 | 72 | 102 | 4.0 | 7.0 | 0.00 | 0.06 | 0.06 | 83 | 1008.0 |
| 20260508234505 | 72 | 101 | 4.0 | 8.0 | 0.00 | 0.06 | 0.06 | 83 | 1008.0 |
| 20260508234306 | 72 | 100 | 5.0 | 8.0 | 0.00 | 0.06 | 0.06 | 83 | 1008.0 |
| 20260508234205 | 72 | 98 | 4.0 | 8.0 | 0.00 | 0.06 | 0.06 | 83 | 1008.0 |
| 20260508234105 | 72 | 97 | 4.0 | 8.0 | 0.00 | 0.06 | 0.06 | 83 | 1008.0 |
| 20260508234005 | 72 | 99 | 4.0 | 8.0 | 0.00 | 0.06 | 0.06 | 83 | 1008.0 |
| 20260508233905 | 72 | 99 | 4.0 | 8.0 | 0.00 | 0.06 | 0.06 | 83 | 1008.0 |
| 20260508233805 | 72 | 100 | 4.0 | 8.0 | 0.00 | 0.06 | 0.06 | 83 | 1008.0 |
| 20260508233705 | 72 | 101 | 4.0 | 8.0 | 0.00 | 0.06 | 0.06 | 83 | 1008.1 |
| 20260508233606 | 72 | 101 | 4.0 | 10.0 | 0.00 | 0.06 | 0.06 | 83 | 1008.0 |
| 20260508233505 | 73 | 100 | 4.0 | 10.0 | 0.00 | 0.06 | 0.06 | 83 | 1008.1 |
| 20260508233305 | 72 | 99 | 4.0 | 10.0 | 0.00 | 0.06 | 0.06 | 83 | 1008.0 |
| 20260508233205 | 72 | 100 | 4.0 | 10.0 | 0.00 | 0.06 | 0.06 | 83 | 1008.0 |
| 20260508233105 | 72 | 99 | 4.0 | 10.0 | 0.00 | 0.06 | 0.06 | 83 | 1008.0 |
| 20260508232905 | 72 | 98 | 4.0 | 10.0 | 0.00 | 0.06 | 0.06 | 83 | 1008.0 |
| 20260508232806 | 72 | 97 | 4.0 | 10.0 | 0.00 | 0.06 | 0.06 | 82 | 1008.0 |
| 20260508232705 | 72 | 97 | 4.0 | 10.0 | 0.00 | 0.06 | 0.06 | 82 | 1008.0 |
| 20260508232606 | 72 | 97 | 4.0 | 9.0 | 0.00 | 0.06 | 0.06 | 82 | 1008.1 |
| 20260508232406 | 72 | 102 | 4.0 | 9.0 | 0.00 | 0.06 | 0.06 | 82 | 1008.0 |
| 20260508232307 | 72 | 106 | 4.0 | 9.0 | 0.00 | 0.06 | 0.06 | 82 | 1008.0 |
| 20260508232205 | 72 | 109 | 4.0 | 9.0 | 0.00 | 0.06 | 0.06 | 82 | 1008.1 |
| 20260508232005 | 72 | 113 | 4.0 | 9.0 | 0.00 | 0.06 | 0.06 | 82 | 1008.1 |
| 20260508231905 | 72 | 114 | 4.0 | 9.0 | 0.00 | 0.06 | 0.06 | 82 | 1008.1 |
| 20260508231805 | 72 | 116 | 5.0 | 9.0 | 0.00 | 0.06 | 0.06 | 82 | 1008.1 |
| 20260508231704 | 72 | 118 | 5.0 | 10.0 | 0.00 | 0.06 | 0.06 | 83 | 1008.1 |
| 20260508231605 | 72 | 119 | 5.0 | 10.0 | 0.00 | 0.06 | 0.06 | 82 | 1008.1 |
| 20260508231505 | 72 | 119 | 5.0 | 10.0 | 0.00 | 0.06 | 0.06 | 82 | 1008.0 |
| 20260508231405 | 72 | 117 | 6.0 | 10.0 | 0.00 | 0.06 | 0.06 | 82 | 1008.1 |
| 20260508231305 | 72 | 117 | 6.0 | 10.0 | 0.00 | 0.06 | 0.06 | 82 | 1008.0 |
| 20260508231205 | 72 | 115 | 6.0 | 10.0 | 0.00 | 0.06 | 0.06 | 82 | 1007.9 |
| 20260508231105 | 72 | 116 | 6.0 | 10.0 | 0.00 | 0.06 | 0.06 | 83 | 1007.9 |
| 20260508231006 | 72 | 115 | 6.0 | 10.0 | 0.00 | 0.06 | 0.06 | 83 | 1007.8 |
| 20260508230905 | 72 | 114 | 6.0 | 10.0 | 0.00 | 0.06 | 0.06 | 82 | 1007.9 |
| 20260508230806 | 72 | 114 | 6.0 | 10.0 | 0.00 | 0.06 | 0.06 | 82 | 1007.9 |
| 20260508230606 | 72 | 112 | 6.0 | 10.0 | 0.00 | 0.06 | 0.06 | 82 | 1007.9 |
| 20260508230505 | 72 | 112 | 5.0 | 10.0 | 0.00 | 0.06 | 0.06 | 82 | 1008.0 |
| 20260508230406 | 72 | 113 | 5.0 | 10.0 | 0.00 | 0.06 | 0.06 | 82 | 1008.0 |
| 20260508230305 | 72 | 112 | 5.0 | 10.0 | 0.00 | 0.06 | 0.06 | 82 | 1008.1 |
| 20260508230206 | 72 | 112 | 4.0 | 10.0 | 0.00 | 0.06 | 0.06 | 82 | 1008.1 |
| 20260508230105 | 72 | 110 | 4.0 | 10.0 | 0.00 | 0.06 | 0.06 | 82 | 1008.1 |
| 20260508230006 | 72 | 109 | 4.0 | 10.0 | 0.00 | 0.06 | 0.06 | 82 | 1008.1 |
| 20260508225905 | 72 | 110 | 4.0 | 8.0 | 0.00 | 0.06 | 0.06 | 82 | 1008.1 |
| 20260508225805 | 72 | 109 | 4.0 | 8.0 | 0.00 | 0.06 | 0.06 | 82 | 1008.1 |
| 20260508225705 | 72 | 109 | 4.0 | 8.0 | 0.00 | 0.06 | 0.06 | 82 | 1008.1 |
| 20260508225605 | 73 | 108 | 4.0 | 7.0 | 0.00 | 0.06 | 0.06 | 82 | 1008.2 |
| 20260508225505 | 73 | 108 | 4.0 | 7.0 | 0.00 | 0.06 | 0.06 | 82 | 1008.2 |
| 20260508225405 | 73 | 108 | 4.0 | 8.0 | 0.00 | 0.06 | 0.06 | 82 | 1008.2 |
| 20260508225306 | 72 | 107 | 4.0 | 8.0 | 0.00 | 0.06 | 0.06 | 82 | 1008.2 |
| 20260508225205 | 72 | 105 | 5.0 | 9.0 | 0.00 | 0.06 | 0.06 | 82 | 1008.2 |
| 20260508225105 | 72 | 104 | 5.0 | 9.0 | 0.00 | 0.06 | 0.06 | 82 | 1008.2 |
| 20260508225005 | 72 | 103 | 5.0 | 9.0 | 0.00 | 0.06 | 0.06 | 82 | 1008.3 |
| 20260508224905 | 72 | 103 | 5.0 | 9.0 | 0.00 | 0.06 | 0.06 | 81 | 1008.3 |
| 20260508224607 | 72 | 103 | 5.0 | 9.0 | 0.00 | 0.06 | 0.06 | 81 | 1008.3 |
| 20260508224506 | 72 | 103 | 4.0 | 9.0 | 0.00 | 0.06 | 0.06 | 81 | 1008.3 |
| 20260508224405 | 73 | 102 | 5.0 | 9.0 | 0.00 | 0.06 | 0.06 | 81 | 1008.3 |
| 20260508224205 | 73 | 106 | 5.0 | 10.0 | 0.00 | 0.06 | 0.06 | 81 | 1008.2 |
| 20260508224005 | 73 | 113 | 5.0 | 10.0 | 0.00 | 0.06 | 0.06 | 81 | 1008.2 |
| 20260508223805 | 73 | 116 | 5.0 | 10.0 | 0.00 | 0.06 | 0.06 | 81 | 1008.1 |
| 20260508223705 | 73 | 117 | 4.0 | 10.0 | 0.00 | 0.06 | 0.06 | 81 | 1008.2 |
| 20260508223505 | 73 | 116 | 4.0 | 10.0 | 0.00 | 0.06 | 0.06 | 80 | 1008.2 |
| 20260508223406 | 73 | 117 | 4.0 | 10.0 | 0.00 | 0.06 | 0.06 | 80 | 1008.2 |
| 20260508223206 | 73 | 120 | 3.0 | 10.0 | 0.00 | 0.06 | 0.06 | 79 | 1008.2 |
| 20260508223105 | 73 | 118 | 3.0 | 10.0 | 0.00 | 0.06 | 0.06 | 79 | 1008.2 |
| 20260508223005 | 73 | 115 | 3.0 | 7.0 | 0.00 | 0.06 | 0.06 | 79 | 1008.3 |
| 20260508222805 | 73 | 111 | 4.0 | 7.0 | 0.00 | 0.06 | 0.06 | 80 | 1008.3 |
| 20260508222705 | 73 | 106 | 4.0 | 9.0 | 0.00 | 0.06 | 0.06 | 80 | 1008.3 |
| 20260508222605 | 73 | 105 | 4.0 | 9.0 | 0.00 | 0.06 | 0.06 | 80 | 1008.3 |
| 20260508222505 | 73 | 104 | 4.0 | 9.0 | 0.00 | 0.06 | 0.06 | 80 | 1008.3 |
| 20260508222405 | 73 | 104 | 4.0 | 9.0 | 0.00 | 0.06 | 0.06 | 80 | 1008.3 |
| 20260508222306 | 73 | 102 | 5.0 | 9.0 | 0.00 | 0.06 | 0.06 | 80 | 1008.3 |
| 20260508222205 | 73 | 100 | 5.0 | 9.0 | 0.00 | 0.06 | 0.06 | 80 | 1008.4 |
| 20260508222005 | 73 | 101 | 5.0 | 9.0 | 0.00 | 0.06 | 0.06 | 80 | 1008.4 |
| 20260508221805 | 73 | 99 | 5.0 | 9.0 | 0.00 | 0.06 | 0.06 | 80 | 1008.4 |
| 20260508221705 | 73 | 100 | 5.0 | 9.0 | 0.00 | 0.06 | 0.06 | 80 | 1008.4 |
| 20260508221605 | 73 | 100 | 5.0 | 8.0 | 0.00 | 0.06 | 0.06 | 80 | 1008.4 |
| 20260508221507 | 73 | 102 | 5.0 | 8.0 | 0.00 | 0.06 | 0.06 | 80 | 1008.4 |
| 20260508221405 | 73 | 101 | 5.0 | 8.0 | 0.00 | 0.06 | 0.06 | 79 | 1008.4 |
| 20260508221305 | 73 | 102 | 5.0 | 9.0 | 0.00 | 0.06 | 0.06 | 80 | 1008.4 |
| 20260508221206 | 73 | 101 | 5.0 | 9.0 | 0.00 | 0.06 | 0.06 | 80 | 1008.4 |
| 20260508221105 | 73 | 98 | 5.0 | 9.0 | 0.00 | 0.06 | 0.06 | 80 | 1008.3 |
| 20260508221006 | 73 | 95 | 4.0 | 9.0 | 0.00 | 0.06 | 0.06 | 79 | 1008.3 |
| 20260508220706 | 73 | 95 | 4.0 | 9.0 | 0.00 | 0.06 | 0.06 | 79 | 1008.4 |
| 20260508220605 | 73 | 92 | 4.0 | 9.0 | 0.00 | 0.06 | 0.06 | 79 | 1008.4 |
| 20260508220505 | 73 | 90 | 4.0 | 9.0 | 0.00 | 0.06 | 0.06 | 79 | 1008.4 |
| 20260508220405 | 73 | 90 | 4.0 | 9.0 | 0.00 | 0.06 | 0.06 | 79 | 1008.5 |
| 20260508220306 | 73 | 90 | 4.0 | 8.0 | 0.00 | 0.06 | 0.06 | 79 | 1008.4 |
| 20260508220206 | 73 | 92 | 4.0 | 9.0 | 0.00 | 0.06 | 0.06 | 80 | 1008.5 |
| 20260508220105 | 73 | 94 | 4.0 | 9.0 | 0.00 | 0.06 | 0.06 | 80 | 1008.5 |
| 20260508220006 | 73 | 94 | 5.0 | 9.0 | 0.00 | 0.06 | 0.06 | 79 | 1008.5 |
| 20260508215906 | 73 | 93 | 5.0 | 9.0 | 0.00 | 0.06 | 0.06 | 80 | 1008.5 |
| 20260508215805 | 73 | 92 | 5.0 | 9.0 | 0.00 | 0.06 | 0.06 | 79 | 1008.5 |
| 20260508215706 | 73 | 95 | 5.0 | 9.0 | 0.00 | 0.06 | 0.06 | 80 | 1008.6 |
| 20260508215605 | 73 | 98 | 4.0 | 9.0 | 0.00 | 0.06 | 0.06 | 79 | 1008.6 |
| 20260508215405 | 73 | 100 | 4.0 | 9.0 | 0.00 | 0.06 | 0.06 | 79 | 1008.6 |
| 20260508215306 | 73 | 99 | 4.0 | 9.0 | 0.00 | 0.06 | 0.06 | 79 | 1008.7 |
| 20260508215105 | 73 | 99 | 3.0 | 9.0 | 0.00 | 0.06 | 0.06 | 79 | 1008.6 |
| 20260508215005 | 73 | 105 | 3.0 | 8.0 | 0.00 | 0.06 | 0.06 | 79 | 1008.5 |
| 20260508214905 | 73 | 110 | 3.0 | 8.0 | 0.00 | 0.06 | 0.06 | 79 | 1008.6 |
| 20260508214805 | 73 | 114 | 3.0 | 8.0 | 0.00 | 0.06 | 0.06 | 80 | 1008.5 |
| 20260508214605 | 72 | 115 | 3.0 | 8.0 | 0.00 | 0.06 | 0.06 | 80 | 1008.6 |
| 20260508214506 | 72 | 116 | 3.0 | 8.0 | 0.00 | 0.06 | 0.06 | 80 | 1008.6 |
| 20260508214405 | 72 | 116 | 3.0 | 8.0 | 0.00 | 0.06 | 0.06 | 80 | 1008.7 |
| 20260508214305 | 72 | 115 | 4.0 | 8.0 | 0.00 | 0.06 | 0.06 | 80 | 1008.8 |
| 20260508214205 | 72 | 112 | 4.0 | 8.0 | 0.00 | 0.06 | 0.06 | 80 | 1008.8 |
| 20260508214005 | 72 | 110 | 4.0 | 8.0 | 0.00 | 0.06 | 0.06 | 80 | 1008.8 |
| 20260508213705 | 72 | 105 | 5.0 | 9.0 | 0.00 | 0.06 | 0.06 | 80 | 1008.8 |
| 20260508213605 | 72 | 104 | 5.0 | 10.0 | 0.00 | 0.06 | 0.06 | 80 | 1008.8 |
| 20260508213505 | 72 | 103 | 5.0 | 10.0 | 0.00 | 0.06 | 0.06 | 80 | 1008.8 |
| 20260508213404 | 72 | 101 | 5.0 | 10.0 | 0.00 | 0.06 | 0.06 | 80 | 1008.8 |
| 20260508213305 | 72 | 101 | 5.0 | 10.0 | 0.00 | 0.06 | 0.06 | 81 | 1008.8 |
| 20260508212805 | 72 | 96 | 5.0 | 10.0 | 0.00 | 0.06 | 0.06 | 81 | 1008.8 |
| 20260508212604 | 72 | 90 | 5.0 | 9.0 | 0.00 | 0.06 | 0.06 | 81 | 1008.9 |
| 20260508212506 | 72 | 89 | 5.0 | 9.0 | 0.00 | 0.06 | 0.06 | 81 | 1008.9 |
| 20260508212205 | 72 | 89 | 5.0 | 9.0 | 0.00 | 0.06 | 0.06 | 81 | 1009.1 |
| 20260508212005 | 72 | 89 | 5.0 | 9.0 | 0.00 | 0.06 | 0.06 | 81 | 1009.2 |
| 20260508211905 | 72 | 87 | 4.0 | 9.0 | 0.00 | 0.06 | 0.06 | 81 | 1009.2 |
| 20260508211805 | 72 | 90 | 5.0 | 9.0 | 0.00 | 0.06 | 0.06 | 81 | 1009.2 |
| 20260508211605 | 72 | 99 | 4.0 | 9.0 | 0.00 | 0.06 | 0.06 | 80 | 1009.2 |
| 20260508211506 | 72 | 99 | 4.0 | 9.0 | 0.00 | 0.06 | 0.06 | 80 | 1009.2 |
| 20260508211405 | 72 | 100 | 4.0 | 9.0 | 0.00 | 0.06 | 0.06 | 80 | 1009.2 |
| 20260508211305 | 73 | 98 | 4.0 | 9.0 | 0.00 | 0.06 | 0.06 | 79 | 1009.3 |
| 20260508211205 | 73 | 101 | 4.0 | 9.0 | 0.00 | 0.06 | 0.06 | 79 | 1009.3 |
| 20260508211105 | 73 | 103 | 4.0 | 9.0 | 0.00 | 0.06 | 0.06 | 80 | 1009.2 |
| 20260508211004 | 73 | 105 | 4.0 | 9.0 | 0.00 | 0.06 | 0.06 | 80 | 1009.2 |
| 20260508210905 | 72 | 105 | 4.0 | 9.0 | 0.00 | 0.06 | 0.06 | 80 | 1009.2 |
| 20260508210804 | 72 | 103 | 5.0 | 10.0 | 0.00 | 0.06 | 0.06 | 80 | 1009.2 |
| 20260508210705 | 72 | 101 | 5.0 | 10.0 | 0.00 | 0.06 | 0.06 | 81 | 1009.2 |
| 20260508210605 | 72 | 100 | 5.0 | 10.0 | 0.00 | 0.06 | 0.06 | 81 | 1009.1 |
| 20260508210505 | 72 | 103 | 5.0 | 10.0 | 0.00 | 0.06 | 0.06 | 82 | 1009.1 |
| 20260508210405 | 72 | 104 | 5.0 | 10.0 | 0.00 | 0.06 | 0.06 | 82 | 1009.1 |
| 20260508210305 | 71 | 106 | 5.0 | 10.0 | 0.00 | 0.06 | 0.06 | 82 | 1009.0 |
| 20260508210205 | 71 | 107 | 5.0 | 10.0 | 0.00 | 0.06 | 0.06 | 82 | 1009.0 |
| 20260508210105 | 71 | 108 | 5.0 | 10.0 | 0.00 | 0.06 | 0.06 | 82 | 1009.0 |
| 20260508210005 | 71 | 108 | 5.0 | 10.0 | 0.00 | 0.06 | 0.06 | 82 | 1009.1 |
| 20260508205906 | 71 | 111 | 5.0 | 10.0 | 0.00 | 0.06 | 0.06 | 83 | 1009.2 |
| 20260508205705 | 71 | 111 | 5.0 | 10.0 | 0.00 | 0.06 | 0.06 | 83 | 1009.3 |
| 20260508205605 | 71 | 111 | 5.0 | 10.0 | 0.00 | 0.06 | 0.06 | 83 | 1009.4 |
| 20260508205505 | 71 | 114 | 5.0 | 10.0 | 0.00 | 0.06 | 0.06 | 82 | 1009.4 |
| 20260508205306 | 71 | 115 | 4.0 | 10.0 | 0.00 | 0.06 | 0.06 | 82 | 1009.5 |
| 20260508205204 | 71 | 115 | 4.0 | 9.0 | 0.00 | 0.06 | 0.06 | 82 | 1009.6 |
| 20260508205105 | 71 | 115 | 5.0 | 9.0 | 0.00 | 0.06 | 0.06 | 82 | 1009.6 |
| 20260508205004 | 71 | 117 | 5.0 | 9.0 | 0.00 | 0.06 | 0.06 | 82 | 1009.6 |
| 20260508204905 | 71 | 118 | 5.0 | 9.0 | 0.00 | 0.06 | 0.06 | 82 | 1009.6 |
| 20260508204805 | 71 | 121 | 5.0 | 9.0 | 0.00 | 0.06 | 0.06 | 82 | 1009.7 |
| 20260508204406 | 71 | 126 | 4.0 | 9.0 | 0.00 | 0.06 | 0.06 | 82 | 1009.7 |
| 20260508204305 | 71 | 128 | 4.0 | 9.0 | 0.00 | 0.06 | 0.06 | 82 | 1009.7 |
| 20260508204205 | 71 | 128 | 4.0 | 9.0 | 0.00 | 0.06 | 0.06 | 82 | 1009.7 |
| 20260508204105 | 71 | 126 | 4.0 | 9.0 | 0.00 | 0.06 | 0.06 | 82 | 1009.8 |
| 20260508204005 | 71 | 125 | 4.0 | 9.0 | 0.00 | 0.06 | 0.06 | 82 | 1009.8 |
| 20260508203905 | 71 | 126 | 4.0 | 9.0 | 0.00 | 0.06 | 0.06 | 82 | 1009.9 |
| 20260508203805 | 71 | 125 | 3.0 | 9.0 | 0.00 | 0.06 | 0.06 | 82 | 1009.9 |
| 20260508203705 | 71 | 127 | 4.0 | 8.0 | 0.00 | 0.06 | 0.06 | 81 | 1009.9 |
| 20260508203605 | 71 | 128 | 4.0 | 10.0 | 0.00 | 0.06 | 0.06 | 81 | 1010.0 |
| 20260508203305 | 71 | 128 | 5.0 | 10.0 | 0.00 | 0.06 | 0.06 | 81 | 1009.9 |
| 20260508203205 | 71 | 124 | 5.0 | 10.0 | 0.00 | 0.06 | 0.06 | 81 | 1009.9 |
| 20260508203105 | 71 | 122 | 5.0 | 10.0 | 0.00 | 0.06 | 0.06 | 81 | 1009.9 |
| 20260508202905 | 71 | 116 | 6.0 | 10.0 | 0.00 | 0.06 | 0.06 | 81 | 1009.9 |
| 20260508202706 | 72 | 113 | 6.0 | 10.0 | 0.00 | 0.06 | 0.06 | 81 | 1009.8 |
| 20260508202605 | 72 | 111 | 6.0 | 10.0 | 0.00 | 0.06 | 0.06 | 81 | 1009.7 |
| 20260508202505 | 72 | 106 | 6.0 | 10.0 | 0.00 | 0.06 | 0.06 | 81 | 1009.7 |
| 20260508202406 | 72 | 100 | 6.0 | 10.0 | 0.00 | 0.06 | 0.06 | 80 | 1009.7 |
| 20260508202307 | 72 | 98 | 6.0 | 10.0 | 0.00 | 0.06 | 0.06 | 81 | 1009.7 |
| 20260508202205 | 72 | 97 | 6.0 | 10.0 | 0.00 | 0.06 | 0.06 | 81 | 1009.6 |
| 20260508202105 | 72 | 96 | 6.0 | 10.0 | 0.00 | 0.06 | 0.06 | 81 | 1009.6 |
| 20260508202005 | 72 | 96 | 6.0 | 10.0 | 0.00 | 0.06 | 0.06 | 80 | 1009.5 |
| 20260508201905 | 72 | 96 | 6.0 | 10.0 | 0.00 | 0.06 | 0.06 | 80 | 1009.6 |
| 20260508201704 | 72 | 95 | 5.0 | 10.0 | 0.00 | 0.06 | 0.06 | 81 | 1009.6 |
| 20260508201605 | 72 | 92 | 6.0 | 9.0 | 0.00 | 0.06 | 0.06 | 81 | 1009.7 |
| 20260508201505 | 71 | 94 | 5.0 | 10.0 | 0.00 | 0.06 | 0.06 | 82 | 1009.7 |
| 20260508201405 | 71 | 99 | 5.0 | 10.0 | 0.00 | 0.06 | 0.06 | 82 | 1009.8 |
| 20260508201306 | 71 | 102 | 5.0 | 10.0 | 0.00 | 0.06 | 0.06 | 82 | 1009.8 |
| 20260508201205 | 71 | 104 | 5.0 | 10.0 | 0.00 | 0.06 | 0.06 | 82 | 1009.9 |
| 20260508201105 | 71 | 109 | 5.0 | 10.0 | 0.00 | 0.06 | 0.06 | 81 | 1010.0 |
| 20260508201005 | 71 | 112 | 5.0 | 10.0 | 0.00 | 0.06 | 0.06 | 81 | 1010.0 |
| 20260508200906 | 71 | 114 | 5.0 | 10.0 | 0.00 | 0.06 | 0.06 | 81 | 1010.1 |
| 20260508200805 | 71 | 116 | 5.0 | 10.0 | 0.00 | 0.06 | 0.06 | 81 | 1010.1 |
| 20260508200605 | 71 | 121 | 4.0 | 10.0 | 0.00 | 0.06 | 0.06 | 82 | 1010.1 |
| 20260508200505 | 71 | 122 | 4.0 | 10.0 | 0.00 | 0.06 | 0.06 | 82 | 1010.2 |
| 20260508200405 | 71 | 119 | 4.0 | 10.0 | 0.00 | 0.06 | 0.06 | 82 | 1010.2 |
| 20260508200305 | 71 | 119 | 4.0 | 10.0 | 0.00 | 0.06 | 0.06 | 82 | 1010.2 |
| 20260508200205 | 71 | 119 | 3.0 | 10.0 | 0.00 | 0.06 | 0.06 | 82 | 1010.2 |
| 20260508200105 | 70 | 117 | 4.0 | 10.0 | 0.00 | 0.06 | 0.06 | 82 | 1010.2 |
| 20260508200005 | 70 | 116 | 3.0 | 10.0 | 0.00 | 0.06 | 0.06 | 82 | 1010.2 |
| 20260508195905 | 70 | 115 | 3.0 | 10.0 | 0.00 | 0.06 | 0.06 | 82 | 1010.2 |
| 20260508195805 | 70 | 110 | 3.0 | 8.0 | 0.00 | 0.06 | 0.06 | 82 | 1010.2 |
| 20260508195705 | 70 | 107 | 3.0 | 7.0 | 0.00 | 0.06 | 0.06 | 82 | 1010.2 |
| 20260508195506 | 70 | 101 | 4.0 | 9.0 | 0.00 | 0.06 | 0.06 | 83 | 1010.2 |
| 20260508195405 | 70 | 102 | 4.0 | 9.0 | 0.00 | 0.06 | 0.06 | 83 | 1010.2 |
| 20260508195306 | 70 | 101 | 4.0 | 9.0 | 0.00 | 0.06 | 0.06 | 84 | 1010.2 |
| 20260508195205 | 70 | 99 | 4.0 | 9.0 | 0.00 | 0.06 | 0.06 | 84 | 1010.3 |
| 20260508195005 | 70 | 97 | 4.0 | 9.0 | 0.00 | 0.06 | 0.06 | 83 | 1010.2 |
| 20260508194805 | 70 | 93 | 4.0 | 9.0 | 0.00 | 0.06 | 0.06 | 83 | 1010.3 |
| 20260508194705 | 70 | 92 | 4.0 | 9.0 | 0.00 | 0.06 | 0.06 | 83 | 1010.3 |
| 20260508194605 | 70 | 93 | 4.0 | 9.0 | 0.00 | 0.06 | 0.06 | 83 | 1010.3 |
| 20260508194506 | 70 | 94 | 3.0 | 8.0 | 0.00 | 0.06 | 0.06 | 83 | 1010.3 |
| 20260508194405 | 70 | 92 | 3.0 | 7.0 | 0.00 | 0.06 | 0.06 | 83 | 1010.3 |
| 20260508194304 | 70 | 90 | 3.0 | 7.0 | 0.00 | 0.06 | 0.06 | 83 | 1010.2 |
| 20260508194105 | 70 | 89 | 3.0 | 7.0 | 0.00 | 0.06 | 0.06 | 83 | 1010.2 |
| 20260508194005 | 70 | 89 | 3.0 | 6.0 | 0.00 | 0.06 | 0.06 | 83 | 1010.3 |
| 20260508193905 | 70 | 90 | 3.0 | 6.0 | 0.00 | 0.06 | 0.06 | 83 | 1010.2 |
| 20260508193706 | 69 | 98 | 3.0 | 5.0 | 0.00 | 0.06 | 0.06 | 83 | 1010.3 |
| 20260508193605 | 69 | 99 | 3.0 | 5.0 | 0.00 | 0.06 | 0.06 | 84 | 1010.3 |
| 20260508193506 | 69 | 97 | 3.0 | 5.0 | 0.00 | 0.06 | 0.06 | 83 | 1010.3 |
| 20260508193405 | 69 | 95 | 3.0 | 6.0 | 0.00 | 0.06 | 0.06 | 83 | 1010.4 |
| 20260508193305 | 69 | 95 | 3.0 | 6.0 | 0.00 | 0.06 | 0.06 | 83 | 1010.5 |
| 20260508193204 | 69 | 95 | 3.0 | 6.0 | 0.00 | 0.06 | 0.06 | 83 | 1010.5 |
| 20260508193105 | 69 | 97 | 3.0 | 6.0 | 0.00 | 0.06 | 0.06 | 84 | 1010.5 |
| 20260508193005 | 69 | 98 | 4.0 | 6.0 | 0.00 | 0.06 | 0.06 | 84 | 1010.5 |
| 20260508192905 | 69 | 95 | 4.0 | 8.0 | 0.00 | 0.06 | 0.06 | 84 | 1010.5 |
| 20260508192804 | 69 | 92 | 4.0 | 8.0 | 0.00 | 0.06 | 0.06 | 83 | 1010.5 |
| 20260508192705 | 69 | 90 | 4.0 | 9.0 | 0.00 | 0.06 | 0.06 | 83 | 1010.5 |
| 20260508192505 | 69 | 90 | 4.0 | 9.0 | 0.00 | 0.06 | 0.06 | 83 | 1010.5 |
| 20260508192404 | 69 | 90 | 4.0 | 9.0 | 0.00 | 0.06 | 0.06 | 83 | 1010.5 |
| 20260508192306 | 69 | 88 | 4.0 | 9.0 | 0.00 | 0.06 | 0.06 | 83 | 1010.5 |
| 20260508192204 | 69 | 86 | 4.0 | 9.0 | 0.00 | 0.06 | 0.06 | 83 | 1010.5 |
| 20260508192105 | 69 | 82 | 4.0 | 9.0 | 0.00 | 0.06 | 0.06 | 83 | 1010.5 |
| 20260508192004 | 69 | 77 | 4.0 | 9.0 | 0.00 | 0.06 | 0.06 | 83 | 1010.5 |
| 20260508191905 | 69 | 77 | 4.0 | 9.0 | 0.00 | 0.06 | 0.06 | 83 | 1010.5 |
| 20260508191705 | 69 | 75 | 4.0 | 9.0 | 0.00 | 0.06 | 0.06 | 83 | 1010.4 |
| 20260508191505 | 69 | 72 | 4.0 | 9.0 | 0.00 | 0.06 | 0.06 | 83 | 1010.4 |
| 20260508191404 | 69 | 72 | 4.0 | 9.0 | 0.00 | 0.06 | 0.06 | 83 | 1010.4 |
| 20260508191305 | 70 | 73 | 4.0 | 9.0 | 0.00 | 0.06 | 0.06 | 83 | 1010.4 |
| 20260508191106 | 69 | 75 | 4.0 | 9.0 | 0.00 | 0.06 | 0.06 | 82 | 1010.5 |
| 20260508191005 | 70 | 79 | 4.0 | 9.0 | 0.00 | 0.06 | 0.06 | 82 | 1010.5 |
| 20260508190905 | 70 | 78 | 4.0 | 9.0 | 0.00 | 0.06 | 0.06 | 83 | 1010.5 |
| 20260508190805 | 69 | 79 | 4.0 | 8.0 | 0.00 | 0.06 | 0.06 | 83 | 1010.4 |
| 20260508190705 | 69 | 79 | 4.0 | 9.0 | 0.00 | 0.06 | 0.06 | 82 | 1010.5 |
| 20260508190605 | 69 | 78 | 5.0 | 9.0 | 0.00 | 0.06 | 0.06 | 82 | 1010.5 |
| 20260508190505 | 69 | 77 | 5.0 | 9.0 | 0.00 | 0.06 | 0.06 | 83 | 1010.5 |
| 20260508190305 | 69 | 75 | 4.0 | 9.0 | 0.00 | 0.06 | 0.06 | 83 | 1010.5 |
| 20260508190205 | 69 | 75 | 4.0 | 9.0 | 0.00 | 0.06 | 0.06 | 83 | 1010.6 |
| 20260508190006 | 69 | 76 | 4.0 | 9.0 | 0.00 | 0.06 | 0.06 | 83 | 1010.6 |
| 20260508185704 | 69 | 84 | 4.0 | 7.0 | 0.00 | 0.06 | 0.06 | 82 | 1010.7 |